Wetterdaten: Sonntag, 22.08.2021
Datum Zeit Temp. Aussen Temp. o. S. Temp +5cm Feuchte Auss Luftdruck Regen Sonnenschein Regendauer Solar Windben Empfang
22.08.2021 00:00 20,3 C 18,9 C 16,1 C 89 % 1014,7 hPa 0,2 l/m 0 min 2 min 0 W/m 0,0 km/h (0 Bft) 100,00 %
22.08.2021 00:02 20,3 C 18,9 C 16,1 C 89 % 1014,7 hPa 0,0 l/m 0 min 2 min 0 W/m 0,0 km/h (0 Bft) 100,00 %
22.08.2021 00:04 20,3 C 18,9 C 16,1 C 89 % 1014,7 hPa 0,0 l/m 0 min 2 min 0 W/m 0,0 km/h (0 Bft) 100,00 %
22.08.2021 00:08 20,1 C 18,3 C 16,1 C 89 % 1014,7 hPa 0,0 l/m 0 min 4 min 0 W/m 0,0 km/h (0 Bft) 98,92 %
22.08.2021 00:10 20,1 C 18,3 C 16,1 C 90 % 1014,7 hPa 0,0 l/m 0 min 2 min 0 W/m 6,4 km/h (2 Bft) 100,00 %
22.08.2021 00:12 20,1 C 18,3 C 16,1 C 90 % 1014,7 hPa 0,0 l/m 0 min 2 min 0 W/m 3,2 km/h (1 Bft) 97,87 %
22.08.2021 00:14 20,0 C 18,3 C 16,1 C 90 % 1014,7 hPa 0,0 l/m 0 min 2 min 0 W/m 9,7 km/h (2 Bft) 100,00 %
22.08.2021 00:16 20,0 C 18,3 C 16,1 C 90 % 1014,7 hPa 0,0 l/m 0 min 2 min 0 W/m 6,4 km/h (2 Bft) 100,00 %
22.08.2021 00:18 20,0 C 18,3 C 16,1 C 90 % 1014,7 hPa 0,0 l/m 0 min 2 min 0 W/m 3,2 km/h (1 Bft) 100,00 %
22.08.2021 00:20 19,9 C 18,3 C 16,1 C 90 % 1014,7 hPa 0,0 l/m 0 min 2 min 0 W/m 6,4 km/h (2 Bft) 100,00 %
22.08.2021 00:22 19,9 C 18,3 C 16,1 C 90 % 1014,8 hPa 0,0 l/m 0 min 2 min 0 W/m 3,2 km/h (1 Bft) 100,00 %
22.08.2021 00:24 19,9 C 18,3 C 16,1 C 90 % 1014,7 hPa 0,0 l/m 0 min 2 min 0 W/m 9,7 km/h (2 Bft) 97,87 %
22.08.2021 00:26 19,8 C 18,3 C 16,1 C 90 % 1014,8 hPa 0,0 l/m 0 min 2 min 0 W/m 12,9 km/h (3 Bft) 100,00 %
22.08.2021 00:28 19,8 C 18,3 C 16,1 C 90 % 1014,7 hPa 0,0 l/m 0 min 2 min 0 W/m 6,4 km/h (2 Bft) 93,62 %
22.08.2021 00:30 19,8 C 18,3 C 16,1 C 90 % 1014,7 hPa 0,0 l/m 0 min 2 min 0 W/m 3,2 km/h (1 Bft) 100,00 %
22.08.2021 00:32 19,8 C 18,3 C 16,1 C 91 % 1014,7 hPa 0,0 l/m 0 min 2 min 0 W/m 3,2 km/h (1 Bft) 97,83 %
22.08.2021 00:34 19,7 C 18,3 C 16,1 C 91 % 1014,8 hPa 0,0 l/m 0 min 2 min 0 W/m 3,2 km/h (1 Bft) 100,00 %
22.08.2021 00:36 19,6 C 18,3 C 16,1 C 91 % 1014,8 hPa 0,0 l/m 0 min 2 min 0 W/m 3,2 km/h (1 Bft) 100,00 %
22.08.2021 00:38 19,6 C 18,3 C 16,1 C 91 % 1014,7 hPa 0,0 l/m 0 min 2 min 0 W/m 6,4 km/h (2 Bft) 97,87 %
22.08.2021 00:40 19,6 C 18,3 C 15,6 C 91 % 1014,7 hPa 0,2 l/m 0 min 2 min 0 W/m 3,2 km/h (1 Bft) 97,87 %
22.08.2021 00:42 19,6 C 18,3 C 15,6 C 91 % 1014,7 hPa 0,0 l/m 0 min 2 min 0 W/m 3,2 km/h (1 Bft) 95,74 %
22.08.2021 00:44 19,5 C 18,3 C 16,1 C 91 % 1014,8 hPa 0,0 l/m 0 min 2 min 0 W/m 3,2 km/h (1 Bft) 97,83 %
22.08.2021 00:46 19,5 C 18,3 C 16,1 C 91 % 1014,8 hPa 0,0 l/m 0 min 2 min 0 W/m 3,2 km/h (1 Bft) 97,87 %
22.08.2021 00:48 19,5 C 18,3 C 16,1 C 91 % 1014,8 hPa 0,0 l/m 0 min 2 min 0 W/m 6,4 km/h (2 Bft) 97,87 %
22.08.2021 00:50 19,5 C 18,3 C 15,6 C 91 % 1014,8 hPa 0,0 l/m 0 min 2 min 0 W/m 6,4 km/h (2 Bft) 97,87 %
22.08.2021 00:52 19,4 C 18,3 C 15,6 C 91 % 1014,8 hPa 0,0 l/m 0 min 2 min 0 W/m 6,4 km/h (2 Bft) 95,74 %
22.08.2021 00:54 19,4 C 18,3 C 16,1 C 91 % 1014,9 hPa 0,0 l/m 0 min 2 min 0 W/m 9,7 km/h (2 Bft) 97,87 %
22.08.2021 00:56 19,4 C 18,3 C 15,6 C 91 % 1014,9 hPa 0,2 l/m 0 min 2 min 0 W/m 12,9 km/h (3 Bft) 95,65 %
22.08.2021 00:58 19,4 C 18,3 C 15,6 C 92 % 1015,0 hPa 0,0 l/m 0 min 2 min 0 W/m 9,7 km/h (2 Bft) 97,87 %
22.08.2021 01:00 19,4 C 18,3 C 15,6 C 92 % 1015,0 hPa 0,2 l/m 0 min 2 min 0 W/m 12,9 km/h (3 Bft) 97,87 %
22.08.2021 01:02 19,3 C 17,8 C 15,6 C 92 % 1015,1 hPa 0,0 l/m 0 min 2 min 0 W/m 19,3 km/h (3 Bft) 95,74 %
22.08.2021 01:04 19,3 C 17,8 C 15,6 C 92 % 1015,1 hPa 0,0 l/m 0 min 2 min 0 W/m 16,1 km/h (3 Bft) 97,87 %
22.08.2021 01:06 19,3 C 17,8 C 15,6 C 92 % 1015,2 hPa 0,0 l/m 0 min 2 min 0 W/m 19,3 km/h (3 Bft) 97,87 %
22.08.2021 01:08 19,3 C 17,8 C 16,1 C 92 % 1015,2 hPa 0,0 l/m 0 min 2 min 0 W/m 19,3 km/h (3 Bft) 93,48 %
22.08.2021 01:10 19,3 C 17,8 C 15,6 C 93 % 1015,2 hPa 0,0 l/m 0 min 2 min 0 W/m 16,1 km/h (3 Bft) 97,87 %
22.08.2021 01:12 19,2 C 17,8 C 16,1 C 93 % 1015,2 hPa 0,0 l/m 0 min 2 min 0 W/m 19,3 km/h (3 Bft) 95,74 %
22.08.2021 01:14 19,2 C 17,8 C 15,6 C 93 % 1015,2 hPa 0,4 l/m 0 min 2 min 0 W/m 12,9 km/h (3 Bft) 100,00 %
22.08.2021 01:16 19,1 C 17,8 C 15,6 C 93 % 1015,2 hPa 0,0 l/m 0 min 2 min 0 W/m 19,3 km/h (3 Bft) 100,00 %
22.08.2021 01:18 19,0 C 17,2 C 15,6 C 93 % 1015,1 hPa 0,2 l/m 0 min 2 min 0 W/m 12,9 km/h (3 Bft) 100,00 %
22.08.2021 01:20 18,9 C 17,2 C 15,6 C 93 % 1015,1 hPa 0,2 l/m 0 min 2 min 0 W/m 6,4 km/h (2 Bft) 97,83 %
22.08.2021 01:22 18,9 C 17,2 C 15,6 C 93 % 1015,0 hPa 0,0 l/m 0 min 2 min 0 W/m 12,9 km/h (3 Bft) 100,00 %
22.08.2021 01:24 18,8 C 17,2 C 15,6 C 93 % 1014,9 hPa 0,0 l/m 0 min 2 min 0 W/m 6,4 km/h (2 Bft) 100,00 %
22.08.2021 01:26 18,8 C 17,2 C 15,6 C 93 % 1014,9 hPa 0,2 l/m 0 min 2 min 0 W/m 12,9 km/h (3 Bft) 100,00 %
22.08.2021 01:28 18,6 C 16,7 C 15,6 C 93 % 1015,0 hPa 0,0 l/m 0 min 2 min 0 W/m 6,4 km/h (2 Bft) 97,87 %
22.08.2021 01:30 18,6 C 16,7 C 15,6 C 93 % 1014,9 hPa 0,0 l/m 0 min 2 min 0 W/m 6,4 km/h (2 Bft) 100,00 %
22.08.2021 01:32 18,5 C 16,7 C 15,6 C 93 % 1015,0 hPa 0,0 l/m 0 min 2 min 0 W/m 16,1 km/h (3 Bft) 100,00 %
22.08.2021 01:34 18,5 C 16,7 C 15,6 C 93 % 1015,0 hPa 0,2 l/m 0 min 2 min 0 W/m 9,7 km/h (2 Bft) 95,74 %
22.08.2021 01:36 18,4 C 16,7 C 15,6 C 93 % 1015,1 hPa 0,0 l/m 0 min 2 min 0 W/m 16,1 km/h (3 Bft) 97,87 %
22.08.2021 01:38 18,3 C 16,7 C 15,6 C 93 % 1015,0 hPa 0,0 l/m 0 min 2 min 0 W/m 12,9 km/h (3 Bft) 97,87 %
22.08.2021 01:40 18,3 C 16,7 C 15,6 C 93 % 1015,1 hPa 0,2 l/m 0 min 2 min 0 W/m 12,9 km/h (3 Bft) 95,74 %
22.08.2021 01:42 18,1 C 16,7 C 15,0 C 93 % 1015,0 hPa 0,2 l/m 0 min 2 min 0 W/m 12,9 km/h (3 Bft) 95,65 %
22.08.2021 01:44 18,0 C 16,7 C 15,0 C 94 % 1014,9 hPa 0,0 l/m 0 min 2 min 0 W/m 12,9 km/h (3 Bft) 95,74 %
22.08.2021 01:46 18,0 C 16,7 C 15,0 C 94 % 1014,7 hPa 0,2 l/m 0 min 2 min 0 W/m 6,4 km/h (2 Bft) 93,62 %
22.08.2021 01:48 18,0 C 16,7 C 15,0 C 94 % 1014,6 hPa 0,2 l/m 0 min 2 min 0 W/m 3,2 km/h (1 Bft) 93,62 %
22.08.2021 01:50 18,0 C 16,7 C 15,0 C 94 % 1014,7 hPa 0,0 l/m 0 min 2 min 0 W/m 9,7 km/h (2 Bft) 93,62 %
22.08.2021 01:52 18,0 C 16,7 C 15,0 C 94 % 1014,7 hPa 0,0 l/m 0 min 0 min 0 W/m 6,4 km/h (2 Bft) 93,62 %
22.08.2021 01:54 17,9 C 16,7 C 15,0 C 94 % 1014,7 hPa 0,0 l/m 0 min 0 min 0 W/m 6,4 km/h (2 Bft) 93,48 %
22.08.2021 01:56 17,9 C 16,7 C 15,0 C 94 % 1014,7 hPa 0,0 l/m 0 min 0 min 0 W/m 6,4 km/h (2 Bft) 95,74 %
22.08.2021 01:58 17,9 C 16,7 C 15,0 C 94 % 1014,7 hPa 0,0 l/m 0 min 0 min 0 W/m 3,2 km/h (1 Bft) 93,62 %
22.08.2021 02:00 17,9 C 16,7 C 15,0 C 94 % 1014,8 hPa 0,0 l/m 0 min 0 min 0 W/m 6,4 km/h (2 Bft) 95,74 %
22.08.2021 02:02 17,9 C 16,7 C 15,0 C 94 % 1014,7 hPa 0,0 l/m 0 min 0 min 0 W/m 3,2 km/h (1 Bft) 95,74 %
22.08.2021 02:04 17,9 C 16,7 C 15,0 C 94 % 1014,7 hPa 0,0 l/m 0 min 0 min 0 W/m 3,2 km/h (1 Bft) 93,62 %
22.08.2021 02:06 17,9 C 16,7 C 15,0 C 94 % 1014,7 hPa 0,0 l/m 0 min 0 min 0 W/m 3,2 km/h (1 Bft) 93,48 %
22.08.2021 02:08 17,8 C 16,7 C 15,0 C 94 % 1014,7 hPa 0,0 l/m 0 min 0 min 0 W/m 3,2 km/h (1 Bft) 95,74 %
22.08.2021 02:10 17,8 C 16,7 C 15,0 C 94 % 1014,7 hPa 0,0 l/m 0 min 0 min 0 W/m 6,4 km/h (2 Bft) 95,74 %
22.08.2021 02:12 17,8 C 16,7 C 15,0 C 95 % 1014,7 hPa 0,0 l/m 0 min 0 min 0 W/m 6,4 km/h (2 Bft) 95,74 %
22.08.2021 02:14 17,8 C 16,7 C 15,0 C 95 % 1014,7 hPa 0,0 l/m 0 min 0 min 0 W/m 12,9 km/h (3 Bft) 95,74 %
22.08.2021 02:16 17,7 C 16,7 C 15,0 C 95 % 1014,6 hPa 0,0 l/m 0 min 0 min 0 W/m 6,4 km/h (2 Bft) 95,74 %
22.08.2021 02:18 17,6 C 16,7 C 15,0 C 95 % 1014,6 hPa 0,0 l/m 0 min 0 min 0 W/m 6,4 km/h (2 Bft) 97,83 %
22.08.2021 02:20 17,6 C 16,1 C 15,0 C 95 % 1014,6 hPa 0,0 l/m 0 min 0 min 0 W/m 6,4 km/h (2 Bft) 89,36 %
22.08.2021 02:22 17,6 C 16,1 C 15,0 C 95 % 1014,5 hPa 0,0 l/m 0 min 0 min 0 W/m 3,2 km/h (1 Bft) 100,00 %
22.08.2021 02:24 17,5 C 16,1 C 15,0 C 95 % 1014,5 hPa 0,0 l/m 0 min 0 min 0 W/m 6,4 km/h (2 Bft) 95,74 %
22.08.2021 02:26 17,5 C 16,1 C 15,0 C 95 % 1014,5 hPa 0,0 l/m 0 min 0 min 0 W/m 3,2 km/h (1 Bft) 97,87 %
22.08.2021 02:28 17,5 C 16,1 C 15,0 C 95 % 1014,4 hPa 0,0 l/m 0 min 0 min 0 W/m 6,4 km/h (2 Bft) 100,00 %
22.08.2021 02:30 17,4 C 16,1 C 15,0 C 95 % 1014,4 hPa 0,0 l/m 0 min 0 min 0 W/m 3,2 km/h (1 Bft) 97,83 %
22.08.2021 02:32 17,4 C 16,1 C 15,0 C 95 % 1014,4 hPa 0,0 l/m 0 min 0 min 0 W/m 6,4 km/h (2 Bft) 97,87 %
22.08.2021 02:34 17,4 C 16,1 C 15,0 C 95 % 1014,4 hPa 0,0 l/m 0 min 0 min 0 W/m 3,2 km/h (1 Bft) 97,87 %
22.08.2021 02:36 17,3 C 16,1 C 15,0 C 95 % 1014,4 hPa 0,0 l/m 0 min 0 min 0 W/m 3,2 km/h (1 Bft) 97,87 %
22.08.2021 02:38 17,3 C 16,1 C 15,0 C 95 % 1014,4 hPa 0,0 l/m 0 min 0 min 0 W/m 3,2 km/h (1 Bft) 97,87 %
22.08.2021 02:40 17,3 C 16,1 C 15,0 C 95 % 1014,4 hPa 0,0 l/m 0 min 0 min 0 W/m 6,4 km/h (2 Bft) 97,87 %
22.08.2021 02:42 17,3 C 16,1 C 14,5 C 95 % 1014,4 hPa 0,0 l/m 0 min 0 min 0 W/m 3,2 km/h (1 Bft) 95,65 %
22.08.2021 02:44 17,3 C 16,1 C 14,5 C 95 % 1014,4 hPa 0,0 l/m 0 min 0 min 0 W/m 3,2 km/h (1 Bft) 97,87 %
22.08.2021 02:46 17,2 C 16,1 C 15,0 C 95 % 1014,4 hPa 0,0 l/m 0 min 0 min 0 W/m 3,2 km/h (1 Bft) 97,87 %
22.08.2021 02:48 17,2 C 16,1 C 14,5 C 95 % 1014,4 hPa 0,0 l/m 0 min 0 min 0 W/m 0,0 km/h (0 Bft) 97,87 %
22.08.2021 02:50 17,2 C 16,1 C 14,5 C 95 % 1014,4 hPa 0,0 l/m 0 min 0 min 0 W/m 3,2 km/h (1 Bft) 97,87 %
22.08.2021 02:52 17,2 C 16,1 C 14,5 C 95 % 1014,4 hPa 0,0 l/m 0 min 0 min 0 W/m 0,0 km/h (0 Bft) 97,87 %
22.08.2021 02:54 17,1 C 16,1 C 14,5 C 95 % 1014,4 hPa 0,0 l/m 0 min 0 min 0 W/m 0,0 km/h (0 Bft) 97,83 %
22.08.2021 02:56 17,1 C 16,1 C 14,5 C 95 % 1014,4 hPa 0,0 l/m 0 min 0 min 0 W/m 0,0 km/h (0 Bft) 95,74 %
22.08.2021 02:58 17,1 C 16,1 C 14,5 C 95 % 1014,4 hPa 0,0 l/m 0 min 0 min 0 W/m 3,2 km/h (1 Bft) 95,74 %
22.08.2021 03:00 17,1 C 16,1 C 14,5 C 95 % 1014,4 hPa 0,0 l/m 0 min 0 min 0 W/m 3,2 km/h (1 Bft) 97,87 %
22.08.2021 03:02 17,1 C 16,1 C 14,5 C 95 % 1014,4 hPa 0,0 l/m 0 min 0 min 0 W/m 0,0 km/h (0 Bft) 97,87 %
22.08.2021 03:04 17,1 C 15,6 C 14,5 C 95 % 1014,4 hPa 0,0 l/m 0 min 0 min 0 W/m 3,2 km/h (1 Bft) 100,00 %
22.08.2021 03:06 17,0 C 15,6 C 14,5 C 95 % 1014,4 hPa 0,0 l/m 0 min 0 min 0 W/m 0,0 km/h (0 Bft) 100,00 %
22.08.2021 03:08 17,0 C 15,6 C 14,5 C 95 % 1014,4 hPa 0,0 l/m 0 min 0 min 0 W/m 0,0 km/h (0 Bft) 100,00 %
22.08.2021 03:10 17,0 C 15,6 C 14,5 C 95 % 1014,5 hPa 0,0 l/m 0 min 0 min 0 W/m 3,2 km/h (1 Bft) 97,87 %
22.08.2021 03:12 16,9 C 15,6 C 14,5 C 95 % 1014,5 hPa 0,0 l/m 0 min 0 min 0 W/m 0,0 km/h (0 Bft) 100,00 %
22.08.2021 03:14 16,9 C 15,6 C 14,5 C 95 % 1014,5 hPa 0,0 l/m 0 min 0 min 0 W/m 0,0 km/h (0 Bft) 100,00 %
22.08.2021 03:16 16,9 C 15,6 C 14,5 C 95 % 1014,5 hPa 0,0 l/m 0 min 0 min 0 W/m 0,0 km/h (0 Bft) 97,87 %
22.08.2021 03:18 16,9 C 15,6 C 14,5 C 95 % 1014,5 hPa 0,0 l/m 0 min 0 min 0 W/m 0,0 km/h (0 Bft) 100,00 %
22.08.2021 03:20 16,8 C 15,6 C 14,5 C 95 % 1014,5 hPa 0,0 l/m 0 min 0 min 0 W/m 0,0 km/h (0 Bft) 100,00 %
22.08.2021 03:22 16,8 C 15,6 C 14,5 C 95 % 1014,5 hPa 0,0 l/m 0 min 0 min 0 W/m 0,0 km/h (0 Bft) 95,74 %
22.08.2021 03:24 16,8 C 15,6 C 14,5 C 95 % 1014,5 hPa 0,0 l/m 0 min 0 min 0 W/m 0,0 km/h (0 Bft) 100,00 %
22.08.2021 03:26 16,8 C 15,6 C 14,5 C 95 % 1014,5 hPa 0,0 l/m 0 min 0 min 0 W/m 0,0 km/h (0 Bft) 100,00 %
22.08.2021 03:28 16,8 C 15,6 C 14,5 C 95 % 1014,6 hPa 0,0 l/m 0 min 0 min 0 W/m 0,0 km/h (0 Bft) 100,00 %
22.08.2021 03:30 16,8 C 15,6 C 14,5 C 95 % 1014,6 hPa 0,0 l/m 0 min 0 min 0 W/m 0,0 km/h (0 Bft) 100,00 %
22.08.2021 03:32 16,8 C 15,6 C 14,5 C 96 % 1014,6 hPa 0,0 l/m 0 min 0 min 0 W/m 0,0 km/h (0 Bft) 100,00 %
22.08.2021 03:34 16,7 C 15,6 C 14,5 C 96 % 1014,5 hPa 0,0 l/m 0 min 0 min 0 W/m 0,0 km/h (0 Bft) 100,00 %
22.08.2021 03:36 16,6 C 15,6 C 14,5 C 96 % 1014,6 hPa 0,0 l/m 0 min 0 min 0 W/m 3,2 km/h (1 Bft) 100,00 %
22.08.2021 03:38 16,6 C 15,6 C 14,5 C 96 % 1014,7 hPa 0,0 l/m 0 min 0 min 0 W/m 3,2 km/h (1 Bft) 100,00 %
22.08.2021 03:40 16,6 C 15,6 C 14,5 C 96 % 1014,7 hPa 0,0 l/m 0 min 0 min 0 W/m 0,0 km/h (0 Bft) 100,00 %
22.08.2021 03:42 16,6 C 15,6 C 14,5 C 96 % 1014,7 hPa 0,0 l/m 0 min 0 min 0 W/m 3,2 km/h (1 Bft) 100,00 %
22.08.2021 03:44 16,6 C 15,6 C 14,5 C 96 % 1014,7 hPa 0,0 l/m 0 min 0 min 0 W/m 0,0 km/h (0 Bft) 100,00 %
22.08.2021 03:46 16,6 C 15,6 C 14,5 C 96 % 1014,7 hPa 0,0 l/m 0 min 0 min 0 W/m 0,0 km/h (0 Bft) 100,00 %
22.08.2021 03:48 16,6 C 15,6 C 14,5 C 96 % 1014,8 hPa 0,0 l/m 0 min 0 min 0 W/m 0,0 km/h (0 Bft) 100,00 %
22.08.2021 03:50 16,5 C 15,6 C 14,5 C 96 % 1014,8 hPa 0,0 l/m 0 min 0 min 0 W/m 0,0 km/h (0 Bft) 100,00 %
22.08.2021 03:52 16,5 C 15,6 C 14,5 C 96 % 1014,7 hPa 0,0 l/m 0 min 0 min 0 W/m 0,0 km/h (0 Bft) 100,00 %
22.08.2021 03:54 16,5 C 15,6 C 14,5 C 96 % 1014,7 hPa 0,0 l/m 0 min 0 min 0 W/m 0,0 km/h (0 Bft) 100,00 %
22.08.2021 03:56 16,5 C 15,6 C 14,5 C 96 % 1014,7 hPa 0,0 l/m 0 min 0 min 0 W/m 0,0 km/h (0 Bft) 100,00 %
22.08.2021 03:58 16,5 C 15,6 C 14,5 C 96 % 1014,7 hPa 0,0 l/m 0 min 0 min 0 W/m 0,0 km/h (0 Bft) 97,87 %
22.08.2021 04:00 16,5 C 15,6 C 14,5 C 96 % 1014,6 hPa 0,0 l/m 0 min 0 min 0 W/m 0,0 km/h (0 Bft) 100,00 %
22.08.2021 04:02 16,5 C 15,6 C 14,5 C 96 % 1014,7 hPa 0,0 l/m 0 min 0 min 0 W/m 3,2 km/h (1 Bft) 100,00 %
22.08.2021 04:04 16,5 C 15,6 C 14,5 C 96 % 1014,7 hPa 0,0 l/m 0 min 0 min 0 W/m 9,7 km/h (2 Bft) 100,00 %
22.08.2021 04:06 16,5 C 15,6 C 14,5 C 96 % 1014,6 hPa 0,0 l/m 0 min 0 min 0 W/m 3,2 km/h (1 Bft) 97,87 %
22.08.2021 04:08 16,5 C 15,6 C 14,5 C 96 % 1014,6 hPa 0,0 l/m 0 min 0 min 0 W/m 9,7 km/h (2 Bft) 100,00 %
22.08.2021 04:10 16,6 C 15,6 C 14,5 C 96 % 1014,7 hPa 0,0 l/m 0 min 0 min 0 W/m 6,4 km/h (2 Bft) 100,00 %
22.08.2021 04:12 16,6 C 15,6 C 14,5 C 96 % 1014,6 hPa 0,0 l/m 0 min 0 min 0 W/m 9,7 km/h (2 Bft) 97,83 %
22.08.2021 04:14 16,6 C 15,6 C 14,5 C 96 % 1014,7 hPa 0,0 l/m 0 min 0 min 0 W/m 6,4 km/h (2 Bft) 95,74 %
22.08.2021 04:16 16,7 C 15,6 C 14,5 C 96 % 1014,6 hPa 0,0 l/m 0 min 0 min 0 W/m 6,4 km/h (2 Bft) 100,00 %
22.08.2021 04:18 16,7 C 15,6 C 14,5 C 96 % 1014,6 hPa 0,0 l/m 0 min 0 min 0 W/m 9,7 km/h (2 Bft) 97,87 %
22.08.2021 04:20 16,8 C 15,6 C 15,0 C 96 % 1014,6 hPa 0,0 l/m 0 min 0 min 0 W/m 6,4 km/h (2 Bft) 97,87 %
22.08.2021 04:22 16,8 C 16,1 C 15,0 C 96 % 1014,6 hPa 0,0 l/m 0 min 0 min 0 W/m 6,4 km/h (2 Bft) 97,87 %
22.08.2021 04:24 16,8 C 15,6 C 15,0 C 96 % 1014,6 hPa 0,0 l/m 0 min 0 min 0 W/m 3,2 km/h (1 Bft) 95,65 %
22.08.2021 04:26 16,8 C 15,6 C 14,5 C 96 % 1014,6 hPa 0,0 l/m 0 min 0 min 0 W/m 6,4 km/h (2 Bft) 95,74 %
22.08.2021 04:28 16,8 C 15,6 C 15,0 C 96 % 1014,6 hPa 0,0 l/m 0 min 0 min 0 W/m 6,4 km/h (2 Bft) 93,62 %
22.08.2021 04:30 16,8 C 15,6 C 15,0 C 96 % 1014,6 hPa 0,0 l/m 0 min 0 min 0 W/m 3,2 km/h (1 Bft) 95,74 %
22.08.2021 04:32 16,9 C 16,1 C 15,0 C 96 % 1014,6 hPa 0,0 l/m 0 min 0 min 0 W/m 6,4 km/h (2 Bft) 95,74 %
22.08.2021 04:34 16,9 C 16,1 C 15,0 C 96 % 1014,7 hPa 0,0 l/m 0 min 0 min 0 W/m 6,4 km/h (2 Bft) 95,74 %
22.08.2021 04:36 16,9 C 16,1 C 15,0 C 96 % 1014,7 hPa 0,0 l/m 0 min 0 min 0 W/m 6,4 km/h (2 Bft) 91,30 %
22.08.2021 04:38 16,9 C 16,1 C 15,0 C 97 % 1014,7 hPa 0,0 l/m 0 min 0 min 0 W/m 3,2 km/h (1 Bft) 93,62 %
22.08.2021 04:40 17,0 C 16,1 C 15,0 C 97 % 1014,7 hPa 0,0 l/m 0 min 0 min 0 W/m 9,7 km/h (2 Bft) 93,62 %
22.08.2021 04:42 17,0 C 16,1 C 15,0 C 97 % 1014,7 hPa 0,0 l/m 0 min 0 min 0 W/m 9,7 km/h (2 Bft) 91,49 %
22.08.2021 04:44 17,0 C 16,1 C 15,0 C 97 % 1014,7 hPa 0,0 l/m 0 min 0 min 0 W/m 6,4 km/h (2 Bft) 89,36 %
22.08.2021 04:46 17,1 C 16,1 C 15,0 C 97 % 1014,7 hPa 0,0 l/m 0 min 0 min 0 W/m 6,4 km/h (2 Bft) 93,62 %
22.08.2021 04:48 17,1 C 16,1 C 15,6 C 97 % 1014,7 hPa 0,0 l/m 0 min 0 min 0 W/m 12,9 km/h (3 Bft) 93,48 %
22.08.2021 04:50 17,1 C 16,7 C 15,6 C 97 % 1014,7 hPa 0,0 l/m 0 min 0 min 0 W/m 6,4 km/h (2 Bft) 93,62 %
22.08.2021 04:52 17,2 C 16,7 C 15,6 C 97 % 1014,7 hPa 0,0 l/m 0 min 0 min 0 W/m 3,2 km/h (1 Bft) 93,62 %
22.08.2021 04:54 17,2 C 16,7 C 15,6 C 97 % 1014,7 hPa 0,0 l/m 0 min 0 min 0 W/m 6,4 km/h (2 Bft) 93,62 %
22.08.2021 04:56 17,3 C 16,7 C 15,6 C 97 % 1014,7 hPa 0,0 l/m 0 min 0 min 0 W/m 3,2 km/h (1 Bft) 93,62 %
22.08.2021 04:58 17,3 C 16,7 C 15,6 C 97 % 1014,7 hPa 0,0 l/m 0 min 0 min 0 W/m 3,2 km/h (1 Bft) 95,74 %
22.08.2021 05:00 17,3 C 16,7 C 15,6 C 97 % 1014,7 hPa 0,0 l/m 0 min 0 min 0 W/m 6,4 km/h (2 Bft) 95,65 %
22.08.2021 05:02 17,3 C 16,7 C 15,6 C 97 % 1014,7 hPa 0,0 l/m 0 min 0 min 0 W/m 12,9 km/h (3 Bft) 93,62 %
22.08.2021 05:04 17,4 C 16,7 C 15,6 C 97 % 1014,7 hPa 0,0 l/m 0 min 0 min 0 W/m 6,4 km/h (2 Bft) 97,87 %
22.08.2021 05:06 17,4 C 16,7 C 15,6 C 97 % 1014,7 hPa 0,0 l/m 0 min 0 min 0 W/m 3,2 km/h (1 Bft) 97,87 %
22.08.2021 05:08 17,4 C 16,7 C 15,6 C 97 % 1014,7 hPa 0,0 l/m 0 min 0 min 0 W/m 6,4 km/h (2 Bft) 97,87 %
22.08.2021 05:10 17,4 C 16,7 C 15,6 C 97 % 1014,6 hPa 0,0 l/m 0 min 0 min 0 W/m 3,2 km/h (1 Bft) 97,87 %
22.08.2021 05:12 17,4 C 16,7 C 15,6 C 97 % 1014,7 hPa 0,0 l/m 0 min 0 min 0 W/m 6,4 km/h (2 Bft) 97,83 %
22.08.2021 05:14 17,4 C 16,7 C 15,6 C 97 % 1014,7 hPa 0,0 l/m 0 min 0 min 0 W/m 12,9 km/h (3 Bft) 97,87 %
22.08.2021 05:16 17,4 C 16,7 C 15,6 C 97 % 1014,7 hPa 0,0 l/m 0 min 0 min 0 W/m 12,9 km/h (3 Bft) 97,87 %
22.08.2021 05:18 17,4 C 16,7 C 15,6 C 97 % 1014,7 hPa 0,0 l/m 0 min 0 min 0 W/m 6,4 km/h (2 Bft) 95,74 %
22.08.2021 05:20 17,4 C 16,7 C 15,6 C 97 % 1014,7 hPa 0,0 l/m 0 min 0 min 0 W/m 12,9 km/h (3 Bft) 95,74 %
22.08.2021 05:22 17,4 C 16,7 C 15,6 C 97 % 1014,7 hPa 0,0 l/m 0 min 0 min 0 W/m 12,9 km/h (3 Bft) 97,87 %
22.08.2021 05:24 17,4 C 16,7 C 15,6 C 97 % 1014,6 hPa 0,0 l/m 0 min 0 min 0 W/m 6,4 km/h (2 Bft) 100,00 %
22.08.2021 05:26 17,4 C 16,7 C 15,6 C 97 % 1014,6 hPa 0,0 l/m 0 min 0 min 0 W/m 3,2 km/h (1 Bft) 100,00 %
22.08.2021 05:28 17,4 C 16,7 C 15,6 C 97 % 1014,6 hPa 0,0 l/m 0 min 0 min 0 W/m 3,2 km/h (1 Bft) 100,00 %
22.08.2021 05:30 17,4 C 16,7 C 15,6 C 97 % 1014,6 hPa 0,0 l/m 0 min 0 min 0 W/m 6,4 km/h (2 Bft) 97,87 %
22.08.2021 05:32 17,4 C 16,7 C 15,6 C 97 % 1014,6 hPa 0,0 l/m 0 min 0 min 0 W/m 9,7 km/h (2 Bft) 97,92 %
22.08.2021 05:34 17,4 C 16,7 C 15,6 C 97 % 1014,6 hPa 0,0 l/m 0 min 0 min 0 W/m 6,4 km/h (2 Bft) 100,00 %
22.08.2021 05:36 17,4 C 16,7 C 15,6 C 97 % 1014,6 hPa 0,0 l/m 0 min 0 min 0 W/m 6,4 km/h (2 Bft) 100,00 %
22.08.2021 05:38 17,4 C 16,7 C 15,6 C 97 % 1014,6 hPa 0,0 l/m 0 min 0 min 0 W/m 3,2 km/h (1 Bft) 100,00 %
22.08.2021 05:40 17,4 C 16,7 C 15,6 C 97 % 1014,6 hPa 0,0 l/m 0 min 0 min 0 W/m 6,4 km/h (2 Bft) 98,00 %
22.08.2021 05:42 17,4 C 16,7 C 15,6 C 97 % 1014,6 hPa 0,0 l/m 0 min 0 min 0 W/m 3,2 km/h (1 Bft) 100,00 %
22.08.2021 05:44 17,4 C 16,7 C 15,6 C 97 % 1014,6 hPa 0,0 l/m 0 min 0 min 0 W/m 3,2 km/h (1 Bft) 100,00 %
22.08.2021 05:46 17,4 C 16,7 C 15,6 C 97 % 1014,6 hPa 0,0 l/m 0 min 0 min 0 W/m 3,2 km/h (1 Bft) 100,00 %
22.08.2021 05:48 17,4 C 16,7 C 15,6 C 97 % 1014,6 hPa 0,0 l/m 0 min 0 min 0 W/m 6,4 km/h (2 Bft) 100,00 %
22.08.2021 05:50 17,4 C 16,7 C 15,6 C 97 % 1014,6 hPa 0,0 l/m 0 min 0 min 0 W/m 6,4 km/h (2 Bft) 100,00 %
22.08.2021 05:52 17,4 C 16,7 C 15,6 C 97 % 1014,7 hPa 0,0 l/m 0 min 0 min 0 W/m 9,7 km/h (2 Bft) 97,87 %
22.08.2021 05:54 17,4 C 16,7 C 15,6 C 97 % 1014,6 hPa 0,0 l/m 0 min 0 min 0 W/m 9,7 km/h (2 Bft) 100,00 %
22.08.2021 05:56 17,4 C 16,7 C 15,6 C 97 % 1014,6 hPa 0,0 l/m 0 min 0 min 0 W/m 12,9 km/h (3 Bft) 100,00 %
22.08.2021 05:58 17,4 C 16,7 C 15,6 C 97 % 1014,6 hPa 0,0 l/m 0 min 0 min 0 W/m 22,5 km/h (4 Bft) 97,83 %
22.08.2021 06:00 17,4 C 16,7 C 15,6 C 97 % 1014,6 hPa 0,0 l/m 0 min 0 min 0 W/m 6,4 km/h (2 Bft) 100,00 %
22.08.2021 06:02 17,4 C 16,7 C 15,6 C 97 % 1014,6 hPa 0,0 l/m 0 min 0 min 0 W/m 6,4 km/h (2 Bft) 100,00 %
22.08.2021 06:04 17,4 C 16,7 C 15,6 C 97 % 1014,7 hPa 0,0 l/m 0 min 0 min 0 W/m 9,7 km/h (2 Bft) 100,00 %
22.08.2021 06:08 17,4 C 16,7 C 15,6 C 97 % 1014,7 hPa 0,0 l/m 0 min 0 min 0 W/m 12,9 km/h (3 Bft) 100,00 %
22.08.2021 06:10 17,4 C 16,7 C 15,6 C 97 % 1014,6 hPa 0,0 l/m 0 min 0 min 0 W/m 6,4 km/h (2 Bft) 100,00 %
22.08.2021 06:12 17,4 C 16,7 C 15,6 C 97 % 1014,7 hPa 0,0 l/m 0 min 0 min 0 W/m 6,4 km/h (2 Bft) 100,00 %
22.08.2021 06:14 17,4 C 16,7 C 15,6 C 97 % 1014,7 hPa 0,0 l/m 0 min 0 min 0 W/m 6,4 km/h (2 Bft) 100,00 %
22.08.2021 06:16 17,4 C 16,7 C 15,6 C 97 % 1014,7 hPa 0,0 l/m 0 min 0 min 0 W/m 12,9 km/h (3 Bft) 97,87 %
22.08.2021 06:18 17,4 C 16,7 C 15,6 C 97 % 1014,7 hPa 0,0 l/m 0 min 0 min 0 W/m 12,9 km/h (3 Bft) 97,87 %
22.08.2021 06:20 17,4 C 16,7 C 15,6 C 97 % 1014,7 hPa 0,0 l/m 0 min 0 min 0 W/m 12,9 km/h (3 Bft) 100,00 %
22.08.2021 06:22 17,4 C 16,7 C 15,6 C 97 % 1014,7 hPa 0,0 l/m 0 min 0 min 0 W/m 6,4 km/h (2 Bft) 100,00 %
22.08.2021 06:24 17,4 C 16,7 C 15,6 C 97 % 1014,7 hPa 0,0 l/m 0 min 0 min 0 W/m 12,9 km/h (3 Bft) 95,74 %
22.08.2021 06:26 17,4 C 16,7 C 15,6 C 97 % 1014,7 hPa 0,0 l/m 0 min 0 min 0 W/m 16,1 km/h (3 Bft) 97,83 %
22.08.2021 06:28 17,4 C 16,7 C 15,6 C 97 % 1014,8 hPa 0,0 l/m 0 min 0 min 0 W/m 9,7 km/h (2 Bft) 97,87 %
22.08.2021 06:30 17,3 C 16,7 C 15,6 C 97 % 1014,8 hPa 0,0 l/m 0 min 0 min 0 W/m 12,9 km/h (3 Bft) 97,87 %
22.08.2021 06:32 17,3 C 16,7 C 15,6 C 97 % 1014,8 hPa 0,0 l/m 0 min 0 min 0 W/m 12,9 km/h (3 Bft) 97,87 %
22.08.2021 06:34 17,3 C 16,7 C 15,6 C 97 % 1014,8 hPa 0,0 l/m 0 min 0 min 0 W/m 6,4 km/h (2 Bft) 97,87 %
22.08.2021 06:36 17,3 C 16,7 C 15,6 C 97 % 1014,8 hPa 0,0 l/m 0 min 0 min 0 W/m 6,4 km/h (2 Bft) 95,74 %
22.08.2021 06:38 17,3 C 16,7 C 15,6 C 97 % 1014,8 hPa 0,0 l/m 0 min 0 min 0 W/m 6,4 km/h (2 Bft) 97,83 %
22.08.2021 06:40 17,3 C 16,7 C 15,6 C 97 % 1014,9 hPa 0,0 l/m 0 min 0 min 0 W/m 6,4 km/h (2 Bft) 97,87 %
22.08.2021 06:42 17,3 C 16,7 C 15,6 C 97 % 1014,9 hPa 0,0 l/m 0 min 0 min 0 W/m 12,9 km/h (3 Bft) 95,74 %
22.08.2021 06:44 17,3 C 16,7 C 15,6 C 97 % 1014,8 hPa 0,0 l/m 0 min 0 min 0 W/m 12,9 km/h (3 Bft) 97,87 %
22.08.2021 06:46 17,3 C 16,7 C 15,6 C 97 % 1014,9 hPa 0,0 l/m 0 min 0 min 0 W/m 6,4 km/h (2 Bft) 97,87 %
22.08.2021 06:48 17,3 C 16,7 C 15,6 C 97 % 1014,9 hPa 0,0 l/m 0 min 0 min 2 W/m 3,2 km/h (1 Bft) 97,87 %
22.08.2021 06:50 17,3 C 16,7 C 15,6 C 97 % 1014,9 hPa 0,0 l/m 0 min 0 min 6 W/m 3,2 km/h (1 Bft) 97,83 %
22.08.2021 06:52 17,3 C 16,7 C 15,6 C 97 % 1014,8 hPa 0,0 l/m 0 min 0 min 7 W/m 6,4 km/h (2 Bft) 95,74 %
22.08.2021 06:54 17,2 C 16,7 C 15,6 C 97 % 1014,9 hPa 0,0 l/m 0 min 0 min 7 W/m 3,2 km/h (1 Bft) 100,00 %
22.08.2021 06:56 17,2 C 16,7 C 15,6 C 97 % 1014,9 hPa 0,0 l/m 0 min 0 min 7 W/m 3,2 km/h (1 Bft) 100,00 %
22.08.2021 06:58 17,2 C 16,7 C 15,6 C 97 % 1014,9 hPa 0,0 l/m 0 min 0 min 9 W/m 3,2 km/h (1 Bft) 97,87 %
22.08.2021 07:00 17,2 C 16,7 C 15,6 C 97 % 1014,9 hPa 0,0 l/m 0 min 0 min 10 W/m 6,4 km/h (2 Bft) 97,87 %
22.08.2021 07:02 17,1 C 16,7 C 15,6 C 97 % 1014,9 hPa 0,0 l/m 0 min 0 min 12 W/m 9,7 km/h (2 Bft) 100,00 %
22.08.2021 07:04 17,1 C 16,7 C 15,6 C 97 % 1015,0 hPa 0,0 l/m 0 min 0 min 14 W/m 9,7 km/h (2 Bft) 95,74 %
22.08.2021 07:06 17,1 C 16,7 C 15,6 C 97 % 1015,0 hPa 0,0 l/m 0 min 0 min 14 W/m 12,9 km/h (3 Bft) 95,74 %
22.08.2021 07:08 17,1 C 16,7 C 15,6 C 97 % 1015,0 hPa 0,0 l/m 0 min 0 min 11 W/m 6,4 km/h (2 Bft) 97,87 %
22.08.2021 07:10 17,1 C 16,7 C 15,6 C 97 % 1015,0 hPa 0,0 l/m 0 min 0 min 10 W/m 6,4 km/h (2 Bft) 97,87 %
22.08.2021 07:12 17,1 C 16,7 C 15,6 C 97 % 1015,1 hPa 0,0 l/m 0 min 0 min 11 W/m 6,4 km/h (2 Bft) 95,74 %
22.08.2021 07:14 17,1 C 16,7 C 15,6 C 97 % 1015,0 hPa 0,0 l/m 0 min 0 min 14 W/m 12,9 km/h (3 Bft) 97,83 %
22.08.2021 07:16 17,1 C 16,7 C 15,6 C 97 % 1015,0 hPa 0,0 l/m 0 min 0 min 14 W/m 3,2 km/h (1 Bft) 95,74 %
22.08.2021 07:18 17,1 C 16,7 C 15,6 C 97 % 1015,0 hPa 0,0 l/m 0 min 0 min 16 W/m 6,4 km/h (2 Bft) 97,87 %
22.08.2021 07:20 17,1 C 16,7 C 15,6 C 97 % 1015,0 hPa 0,0 l/m 0 min 0 min 18 W/m 12,9 km/h (3 Bft) 97,87 %
22.08.2021 07:22 17,1 C 16,7 C 15,6 C 97 % 1015,0 hPa 0,0 l/m 0 min 0 min 23 W/m 6,4 km/h (2 Bft) 97,87 %
22.08.2021 07:24 17,1 C 16,7 C 15,6 C 97 % 1015,0 hPa 0,0 l/m 0 min 0 min 26 W/m 12,9 km/h (3 Bft) 95,74 %
22.08.2021 07:26 17,1 C 16,7 C 15,6 C 97 % 1015,0 hPa 0,0 l/m 0 min 0 min 30 W/m 9,7 km/h (2 Bft) 95,65 %
22.08.2021 07:28 17,1 C 16,7 C 15,6 C 97 % 1015,0 hPa 0,0 l/m 0 min 0 min 35 W/m 6,4 km/h (2 Bft) 93,62 %
22.08.2021 07:30 17,0 C 16,7 C 15,6 C 97 % 1015,1 hPa 0,0 l/m 0 min 0 min 34 W/m 12,9 km/h (3 Bft) 95,74 %
22.08.2021 07:32 17,0 C 16,7 C 15,6 C 97 % 1015,1 hPa 0,0 l/m 0 min 0 min 26 W/m 9,7 km/h (2 Bft) 95,74 %
22.08.2021 07:34 17,0 C 16,7 C 15,6 C 97 % 1015,1 hPa 0,0 l/m 0 min 0 min 30 W/m 6,4 km/h (2 Bft) 93,62 %
22.08.2021 07:37 17,0 C 16,7 C 15,6 C 97 % 1015,1 hPa 0,0 l/m 0 min 0 min 31 W/m 12,9 km/h (3 Bft) 95,71 %
22.08.2021 07:38 17,0 C 16,7 C 15,6 C 97 % 1015,1 hPa 0,0 l/m 0 min 0 min 30 W/m 6,4 km/h (2 Bft) 91,30 %
22.08.2021 07:40 17,0 C 16,7 C 15,6 C 97 % 1015,1 hPa 0,0 l/m 0 min 0 min 31 W/m 6,4 km/h (2 Bft) 93,62 %
22.08.2021 07:42 17,1 C 16,7 C 15,6 C 97 % 1015,1 hPa 0,0 l/m 0 min 0 min 32 W/m 9,7 km/h (2 Bft) 93,62 %
22.08.2021 07:44 17,1 C 16,7 C 15,6 C 97 % 1015,2 hPa 0,0 l/m 0 min 0 min 31 W/m 6,4 km/h (2 Bft) 95,74 %
22.08.2021 07:46 17,1 C 16,7 C 15,6 C 97 % 1015,2 hPa 0,0 l/m 0 min 0 min 28 W/m 3,2 km/h (1 Bft) 95,74 %
22.08.2021 07:48 17,1 C 16,7 C 15,6 C 97 % 1015,2 hPa 0,0 l/m 0 min 0 min 26 W/m 9,7 km/h (2 Bft) 93,48 %
22.08.2021 07:50 17,1 C 16,7 C 15,6 C 97 % 1015,2 hPa 0,0 l/m 0 min 0 min 30 W/m 6,4 km/h (2 Bft) 95,74 %
22.08.2021 07:52 17,1 C 16,7 C 15,6 C 97 % 1015,2 hPa 0,0 l/m 0 min 0 min 26 W/m 3,2 km/h (1 Bft) 93,62 %
22.08.2021 07:54 17,1 C 16,7 C 15,6 C 97 % 1015,3 hPa 0,0 l/m 0 min 0 min 29 W/m 6,4 km/h (2 Bft) 97,87 %
22.08.2021 07:56 17,1 C 16,7 C 15,6 C 97 % 1015,2 hPa 0,0 l/m 0 min 0 min 33 W/m 6,4 km/h (2 Bft) 97,87 %
22.08.2021 07:58 17,1 C 16,7 C 15,6 C 97 % 1015,2 hPa 0,0 l/m 0 min 0 min 38 W/m 9,7 km/h (2 Bft) 97,87 %
22.08.2021 08:00 17,1 C 16,7 C 15,6 C 97 % 1015,1 hPa 0,0 l/m 0 min 0 min 43 W/m 3,2 km/h (1 Bft) 97,83 %
22.08.2021 08:02 17,1 C 16,7 C 15,6 C 97 % 1015,2 hPa 0,0 l/m 0 min 0 min 49 W/m 6,4 km/h (2 Bft) 93,62 %
22.08.2021 08:04 17,1 C 16,7 C 15,6 C 97 % 1015,3 hPa 0,0 l/m 0 min 0 min 53 W/m 6,4 km/h (2 Bft) 97,87 %
22.08.2021 08:06 17,1 C 16,7 C 15,6 C 97 % 1015,3 hPa 0,0 l/m 0 min 0 min 54 W/m 6,4 km/h (2 Bft) 97,87 %
22.08.2021 08:08 17,1 C 16,7 C 15,6 C 97 % 1015,3 hPa 0,0 l/m 0 min 0 min 54 W/m 3,2 km/h (1 Bft) 93,62 %
22.08.2021 08:10 17,1 C 16,7 C 15,6 C 97 % 1015,3 hPa 0,0 l/m 0 min 0 min 49 W/m 9,7 km/h (2 Bft) 95,74 %
22.08.2021 08:12 17,1 C 16,7 C 15,6 C 97 % 1015,3 hPa 0,0 l/m 0 min 0 min 43 W/m 9,7 km/h (2 Bft) 97,83 %
22.08.2021 08:14 17,1 C 16,7 C 15,6 C 97 % 1015,4 hPa 0,0 l/m 0 min 0 min 42 W/m 12,9 km/h (3 Bft) 97,87 %
22.08.2021 08:16 17,0 C 16,7 C 15,6 C 97 % 1015,4 hPa 0,0 l/m 0 min 0 min 57 W/m 6,4 km/h (2 Bft) 97,87 %
22.08.2021 08:18 17,0 C 16,7 C 15,6 C 97 % 1015,4 hPa 0,0 l/m 0 min 0 min 69 W/m 12,9 km/h (3 Bft) 97,87 %
22.08.2021 08:20 17,0 C 16,7 C 15,6 C 97 % 1015,4 hPa 0,0 l/m 0 min 0 min 69 W/m 19,3 km/h (3 Bft) 95,74 %
22.08.2021 08:22 17,1 C 16,7 C 15,6 C 97 % 1015,4 hPa 0,0 l/m 0 min 0 min 69 W/m 6,4 km/h (2 Bft) 93,62 %
22.08.2021 08:24 17,1 C 16,7 C 15,6 C 97 % 1015,4 hPa 0,0 l/m 0 min 0 min 71 W/m 6,4 km/h (2 Bft) 97,83 %
22.08.2021 08:26 17,1 C 16,7 C 15,6 C 97 % 1015,4 hPa 0,0 l/m 0 min 0 min 86 W/m 6,4 km/h (2 Bft) 97,87 %
22.08.2021 08:28 17,1 C 16,7 C 15,6 C 97 % 1015,5 hPa 0,0 l/m 0 min 0 min 77 W/m 3,2 km/h (1 Bft) 97,87 %
22.08.2021 08:30 17,2 C 17,2 C 15,6 C 97 % 1015,5 hPa 0,0 l/m 0 min 0 min 87 W/m 12,9 km/h (3 Bft) 95,74 %
22.08.2021 08:32 17,2 C 17,2 C 15,6 C 97 % 1015,5 hPa 0,0 l/m 0 min 0 min 89 W/m 12,9 km/h (3 Bft) 95,74 %
22.08.2021 08:34 17,2 C 17,2 C 15,6 C 96 % 1015,5 hPa 0,0 l/m 0 min 0 min 67 W/m 12,9 km/h (3 Bft) 97,87 %
22.08.2021 08:36 17,2 C 17,2 C 15,6 C 96 % 1015,5 hPa 0,0 l/m 0 min 0 min 67 W/m 9,7 km/h (2 Bft) 95,65 %
22.08.2021 08:38 17,2 C 17,2 C 15,6 C 96 % 1015,5 hPa 0,0 l/m 0 min 0 min 71 W/m 16,1 km/h (3 Bft) 97,87 %
22.08.2021 08:40 17,2 C 17,2 C 15,6 C 96 % 1015,5 hPa 0,0 l/m 0 min 0 min 70 W/m 6,4 km/h (2 Bft) 95,74 %
22.08.2021 08:42 17,3 C 17,2 C 15,6 C 96 % 1015,5 hPa 0,0 l/m 0 min 0 min 72 W/m 6,4 km/h (2 Bft) 97,87 %
22.08.2021 08:44 17,3 C 17,2 C 15,6 C 96 % 1015,5 hPa 0,0 l/m 0 min 0 min 124 W/m 16,1 km/h (3 Bft) 97,87 %
22.08.2021 08:46 17,3 C 17,2 C 15,6 C 96 % 1015,5 hPa 0,0 l/m 0 min 0 min 147 W/m 9,7 km/h (2 Bft) 97,87 %
22.08.2021 08:48 17,3 C 17,2 C 15,6 C 96 % 1015,5 hPa 0,0 l/m 2 min 0 min 227 W/m 12,9 km/h (3 Bft) 97,83 %
22.08.2021 08:50 17,4 C 17,2 C 15,6 C 96 % 1015,5 hPa 0,0 l/m 2 min 0 min 271 W/m 9,7 km/h (2 Bft) 97,87 %
22.08.2021 08:52 17,4 C 17,2 C 15,6 C 96 % 1015,5 hPa 0,0 l/m 2 min 0 min 231 W/m 12,9 km/h (3 Bft) 100,00 %
22.08.2021 08:54 17,4 C 17,8 C 15,6 C 96 % 1015,5 hPa 0,0 l/m 2 min 0 min 297 W/m 9,7 km/h (2 Bft) 100,00 %
22.08.2021 08:56 17,5 C 17,8 C 15,6 C 96 % 1015,4 hPa 0,0 l/m 2 min 0 min 246 W/m 12,9 km/h (3 Bft) 100,00 %
22.08.2021 08:58 17,5 C 17,8 C 15,6 C 96 % 1015,4 hPa 0,0 l/m 0 min 0 min 127 W/m 25,7 km/h (4 Bft) 97,87 %
22.08.2021 09:00 17,5 C 17,8 C 15,6 C 96 % 1015,4 hPa 0,0 l/m 0 min 0 min 115 W/m 6,4 km/h (2 Bft) 93,48 %
22.08.2021 09:02 17,5 C 17,8 C 15,6 C 96 % 1015,4 hPa 0,0 l/m 0 min 0 min 140 W/m 16,1 km/h (3 Bft) 97,87 %
22.08.2021 09:04 17,5 C 18,9 C 15,6 C 96 % 1015,4 hPa 0,0 l/m 2 min 0 min 261 W/m 9,7 km/h (2 Bft) 100,00 %
22.08.2021 09:06 17,6 C 20,0 C 15,6 C 96 % 1015,4 hPa 0,0 l/m 2 min 0 min 321 W/m 12,9 km/h (3 Bft) 100,00 %
22.08.2021 09:08 17,6 C 20,0 C 15,6 C 95 % 1015,5 hPa 0,0 l/m 2 min 0 min 307 W/m 12,9 km/h (3 Bft) 97,87 %
22.08.2021 09:10 17,7 C 20,0 C 15,6 C 95 % 1015,5 hPa 0,0 l/m 2 min 0 min 215 W/m 12,9 km/h (3 Bft) 100,00 %
22.08.2021 09:12 17,8 C 20,6 C 16,1 C 95 % 1015,5 hPa 0,0 l/m 2 min 0 min 334 W/m 16,1 km/h (3 Bft) 97,83 %
22.08.2021 09:14 17,9 C 20,6 C 16,1 C 95 % 1015,6 hPa 0,0 l/m 2 min 0 min 302 W/m 16,1 km/h (3 Bft) 100,00 %
22.08.2021 09:16 17,9 C 21,1 C 16,1 C 95 % 1015,6 hPa 0,0 l/m 2 min 0 min 387 W/m 12,9 km/h (3 Bft) 97,87 %
22.08.2021 09:18 18,0 C 20,6 C 16,1 C 95 % 1015,6 hPa 0,0 l/m 2 min 0 min 360 W/m 9,7 km/h (2 Bft) 100,00 %
22.08.2021 09:20 18,1 C 20,6 C 16,1 C 95 % 1015,6 hPa 0,0 l/m 2 min 0 min 221 W/m 16,1 km/h (3 Bft) 97,87 %
22.08.2021 09:22 18,1 C 20,6 C 16,7 C 94 % 1015,5 hPa 0,0 l/m 2 min 0 min 429 W/m 6,4 km/h (2 Bft) 97,87 %
22.08.2021 09:24 18,2 C 20,6 C 16,1 C 94 % 1015,6 hPa 0,0 l/m 2 min 0 min 294 W/m 16,1 km/h (3 Bft) 100,00 %
22.08.2021 09:26 18,3 C 20,6 C 16,7 C 94 % 1015,6 hPa 0,0 l/m 2 min 0 min 304 W/m 22,5 km/h (4 Bft) 100,00 %
22.08.2021 09:28 18,4 C 21,1 C 16,7 C 94 % 1015,6 hPa 0,0 l/m 2 min 0 min 468 W/m 6,4 km/h (2 Bft) 97,87 %
22.08.2021 09:30 18,5 C 21,1 C 16,7 C 94 % 1015,6 hPa 0,0 l/m 2 min 0 min 303 W/m 6,4 km/h (2 Bft) 97,87 %
22.08.2021 09:32 18,6 C 20,6 C 16,7 C 93 % 1015,6 hPa 0,0 l/m 2 min 0 min 286 W/m 6,4 km/h (2 Bft) 100,00 %
22.08.2021 09:34 18,6 C 20,0 C 16,7 C 93 % 1015,5 hPa 0,0 l/m 0 min 0 min 202 W/m 16,1 km/h (3 Bft) 100,00 %
22.08.2021 09:36 18,6 C 19,4 C 16,7 C 93 % 1015,6 hPa 0,0 l/m 0 min 0 min 150 W/m 9,7 km/h (2 Bft) 97,83 %
22.08.2021 09:38 18,7 C 18,9 C 16,7 C 92 % 1015,5 hPa 0,0 l/m 0 min 0 min 97 W/m 12,9 km/h (3 Bft) 100,00 %
22.08.2021 09:40 18,6 C 18,9 C 16,1 C 92 % 1015,6 hPa 0,0 l/m 0 min 0 min 68 W/m 16,1 km/h (3 Bft) 100,00 %
22.08.2021 09:42 18,6 C 18,3 C 16,1 C 92 % 1015,6 hPa 0,0 l/m 0 min 0 min 69 W/m 6,4 km/h (2 Bft) 100,00 %
22.08.2021 09:44 18,6 C 18,3 C 16,1 C 91 % 1015,6 hPa 0,0 l/m 0 min 0 min 94 W/m 6,4 km/h (2 Bft) 100,00 %
22.08.2021 09:46 18,6 C 18,3 C 16,1 C 92 % 1015,6 hPa 0,0 l/m 0 min 0 min 143 W/m 12,9 km/h (3 Bft) 93,62 %
22.08.2021 09:48 18,6 C 18,3 C 16,1 C 91 % 1015,8 hPa 0,0 l/m 0 min 0 min 170 W/m 16,1 km/h (3 Bft) 95,65 %
22.08.2021 09:50 18,6 C 18,3 C 16,1 C 91 % 1015,7 hPa 0,0 l/m 0 min 0 min 117 W/m 16,1 km/h (3 Bft) 100,00 %
22.08.2021 09:52 18,6 C 18,3 C 16,1 C 91 % 1015,7 hPa 0,0 l/m 0 min 0 min 97 W/m 6,4 km/h (2 Bft) 97,87 %
22.08.2021 09:54 18,5 C 18,3 C 16,1 C 91 % 1015,7 hPa 0,0 l/m 0 min 0 min 99 W/m 9,7 km/h (2 Bft) 100,00 %
22.08.2021 09:56 18,5 C 18,3 C 16,1 C 91 % 1015,8 hPa 0,0 l/m 0 min 0 min 103 W/m 6,4 km/h (2 Bft) 97,87 %
22.08.2021 09:58 18,5 C 18,3 C 16,1 C 91 % 1015,7 hPa 0,0 l/m 0 min 0 min 160 W/m 9,7 km/h (2 Bft) 97,87 %
22.08.2021 10:00 18,6 C 18,9 C 16,1 C 91 % 1015,7 hPa 0,0 l/m 2 min 0 min 269 W/m 9,7 km/h (2 Bft) 97,83 %
22.08.2021 10:02 18,6 C 18,9 C 16,1 C 91 % 1015,7 hPa 0,0 l/m 2 min 0 min 269 W/m 6,4 km/h (2 Bft) 100,00 %
22.08.2021 10:04 18,7 C 18,9 C 16,1 C 91 % 1015,7 hPa 0,0 l/m 0 min 0 min 205 W/m 9,7 km/h (2 Bft) 100,00 %
22.08.2021 10:06 18,8 C 18,9 C 16,1 C 91 % 1015,7 hPa 0,0 l/m 0 min 0 min 151 W/m 6,4 km/h (2 Bft) 97,87 %
22.08.2021 10:08 18,8 C 18,9 C 16,7 C 91 % 1015,7 hPa 0,0 l/m 0 min 0 min 189 W/m 6,4 km/h (2 Bft) 97,87 %
22.08.2021 10:10 18,8 C 18,9 C 16,7 C 91 % 1015,7 hPa 0,0 l/m 0 min 0 min 235 W/m 3,2 km/h (1 Bft) 97,14 %
22.08.2021 10:12 18,9 C 19,4 C 16,7 C 91 % 1015,7 hPa 0,0 l/m 0 min 0 min 237 W/m 3,2 km/h (1 Bft) 97,87 %
22.08.2021 10:14 18,9 C 19,4 C 17,3 C 91 % 1015,7 hPa 0,0 l/m 0 min 0 min 217 W/m 6,4 km/h (2 Bft) 95,65 %
22.08.2021 10:16 19,0 C 19,4 C 17,3 C 91 % 1015,7 hPa 0,0 l/m 0 min 0 min 251 W/m 9,7 km/h (2 Bft) 93,22 %
22.08.2021 10:18 19,0 C 19,4 C 17,8 C 90 % 1015,7 hPa 0,0 l/m 0 min 0 min 208 W/m 19,3 km/h (3 Bft) 97,14 %
22.08.2021 10:20 19,0 C 18,9 C 17,8 C 90 % 1015,7 hPa 0,0 l/m 0 min 0 min 161 W/m 16,1 km/h (3 Bft) 95,74 %
22.08.2021 10:22 19,0 C 19,4 C 17,8 C 90 % 1015,8 hPa 0,0 l/m 0 min 0 min 231 W/m 6,4 km/h (2 Bft) 91,49 %
22.08.2021 10:24 19,1 C 20,0 C 17,8 C 90 % 1015,8 hPa 0,0 l/m 2 min 0 min 303 W/m 16,1 km/h (3 Bft) 93,62 %
22.08.2021 10:26 19,1 C 20,6 C 17,8 C 90 % 1015,8 hPa 0,0 l/m 2 min 0 min 318 W/m 19,3 km/h (3 Bft) 93,48 %
22.08.2021 10:28 19,3 C 20,6 C 17,8 C 90 % 1015,7 hPa 0,0 l/m 2 min 0 min 420 W/m 16,1 km/h (3 Bft) 93,62 %
22.08.2021 10:30 19,4 C 21,1 C 18,4 C 89 % 1015,8 hPa 0,0 l/m 2 min 0 min 492 W/m 12,9 km/h (3 Bft) 89,83 %
22.08.2021 10:32 19,5 C 21,7 C 18,4 C 89 % 1015,7 hPa 0,0 l/m 2 min 0 min 567 W/m 16,1 km/h (3 Bft) 94,29 %
22.08.2021 10:34 19,6 C 21,1 C 18,4 C 89 % 1015,7 hPa 0,0 l/m 2 min 0 min 566 W/m 12,9 km/h (3 Bft) 91,49 %
22.08.2021 10:36 19,7 C 21,1 C 18,9 C 89 % 1015,7 hPa 0,0 l/m 2 min 0 min 540 W/m 12,9 km/h (3 Bft) 94,83 %
22.08.2021 10:38 19,8 C 20,6 C 18,4 C 88 % 1015,8 hPa 0,0 l/m 0 min 0 min 182 W/m 16,1 km/h (3 Bft) 91,49 %
22.08.2021 10:40 19,8 C 20,0 C 18,4 C 88 % 1015,7 hPa 0,0 l/m 0 min 0 min 171 W/m 16,1 km/h (3 Bft) 88,57 %
22.08.2021 10:42 19,8 C 20,0 C 18,4 C 87 % 1015,8 hPa 0,0 l/m 0 min 0 min 153 W/m 16,1 km/h (3 Bft) 93,62 %
22.08.2021 10:44 19,8 C 20,0 C 18,4 C 87 % 1015,8 hPa 0,0 l/m 0 min 0 min 268 W/m 12,9 km/h (3 Bft) 93,62 %
22.08.2021 10:46 19,8 C 20,0 C 18,4 C 87 % 1015,8 hPa 0,0 l/m 0 min 0 min 274 W/m 12,9 km/h (3 Bft) 92,45 %
22.08.2021 10:48 19,8 C 20,0 C 18,4 C 87 % 1015,8 hPa 0,0 l/m 0 min 0 min 254 W/m 12,9 km/h (3 Bft) 89,36 %
22.08.2021 10:50 19,8 C 20,0 C 18,4 C 87 % 1015,8 hPa 0,0 l/m 0 min 0 min 212 W/m 12,9 km/h (3 Bft) 93,62 %
22.08.2021 10:52 19,9 C 20,6 C 18,4 C 87 % 1015,8 hPa 0,0 l/m 0 min 0 min 196 W/m 6,4 km/h (2 Bft) 93,62 %
22.08.2021 10:54 19,9 C 20,0 C 18,4 C 87 % 1015,8 hPa 0,0 l/m 0 min 0 min 221 W/m 12,9 km/h (3 Bft) 93,48 %
22.08.2021 10:56 19,9 C 20,6 C 18,4 C 87 % 1015,8 hPa 0,0 l/m 0 min 0 min 206 W/m 12,9 km/h (3 Bft) 95,74 %
22.08.2021 10:58 20,0 C 20,6 C 18,9 C 87 % 1015,8 hPa 0,0 l/m 0 min 0 min 189 W/m 12,9 km/h (3 Bft) 97,87 %
22.08.2021 11:00 19,9 C 20,0 C 18,4 C 86 % 1015,9 hPa 0,0 l/m 0 min 0 min 168 W/m 16,1 km/h (3 Bft) 97,87 %
22.08.2021 11:02 19,9 C 20,0 C 18,4 C 85 % 1015,9 hPa 0,0 l/m 0 min 0 min 202 W/m 19,3 km/h (3 Bft) 97,87 %
22.08.2021 11:04 19,9 C 19,4 C 18,4 C 85 % 1015,9 hPa 0,0 l/m 0 min 0 min 205 W/m 16,1 km/h (3 Bft) 97,87 %
22.08.2021 11:06 19,8 C 20,0 C 18,4 C 85 % 1015,8 hPa 0,0 l/m 0 min 0 min 209 W/m 6,4 km/h (2 Bft) 100,00 %
22.08.2021 11:08 19,8 C 20,0 C 18,4 C 85 % 1015,8 hPa 0,0 l/m 0 min 0 min 249 W/m 16,1 km/h (3 Bft) 100,00 %
22.08.2021 11:10 19,8 C 19,4 C 18,4 C 85 % 1015,8 hPa 0,0 l/m 0 min 0 min 176 W/m 12,9 km/h (3 Bft) 100,00 %
22.08.2021 11:12 19,8 C 19,4 C 18,4 C 85 % 1015,8 hPa 0,0 l/m 0 min 0 min 134 W/m 12,9 km/h (3 Bft) 97,87 %
22.08.2021 11:14 19,8 C 19,4 C 18,4 C 85 % 1015,8 hPa 0,0 l/m 0 min 0 min 139 W/m 12,9 km/h (3 Bft) 100,00 %
22.08.2021 11:16 19,7 C 19,4 C 18,4 C 85 % 1015,9 hPa 0,0 l/m 0 min 0 min 138 W/m 12,9 km/h (3 Bft) 100,00 %
22.08.2021 11:18 19,7 C 19,4 C 18,4 C 85 % 1015,8 hPa 0,0 l/m 0 min 0 min 127 W/m 12,9 km/h (3 Bft) 100,00 %
22.08.2021 11:20 19,6 C 18,9 C 17,8 C 85 % 1015,8 hPa 0,0 l/m 0 min 0 min 111 W/m 12,9 km/h (3 Bft) 100,00 %
22.08.2021 11:22 19,6 C 18,9 C 17,8 C 84 % 1015,8 hPa 0,0 l/m 0 min 0 min 82 W/m 12,9 km/h (3 Bft) 100,00 %
22.08.2021 11:24 19,5 C 18,9 C 17,8 C 84 % 1015,9 hPa 0,0 l/m 0 min 0 min 88 W/m 6,4 km/h (2 Bft) 100,00 %
22.08.2021 11:26 19,5 C 18,9 C 17,8 C 84 % 1015,9 hPa 0,0 l/m 0 min 0 min 150 W/m 12,9 km/h (3 Bft) 100,00 %
22.08.2021 11:28 19,5 C 19,4 C 18,4 C 84 % 1015,9 hPa 0,0 l/m 0 min 0 min 230 W/m 22,5 km/h (4 Bft) 100,00 %
22.08.2021 11:30 19,5 C 19,4 C 18,4 C 84 % 1015,8 hPa 0,0 l/m 2 min 0 min 479 W/m 12,9 km/h (3 Bft) 100,00 %
22.08.2021 11:32 19,6 C 20,0 C 18,4 C 84 % 1015,8 hPa 0,0 l/m 2 min 0 min 358 W/m 12,9 km/h (3 Bft) 100,00 %
22.08.2021 11:34 19,7 C 20,0 C 18,4 C 83 % 1015,9 hPa 0,0 l/m 0 min 0 min 298 W/m 19,3 km/h (3 Bft) 100,00 %
22.08.2021 11:36 19,8 C 20,0 C 18,9 C 83 % 1016,0 hPa 0,0 l/m 2 min 0 min 362 W/m 19,3 km/h (3 Bft) 97,87 %
22.08.2021 11:38 19,8 C 20,6 C 18,9 C 82 % 1015,8 hPa 0,0 l/m 2 min 0 min 413 W/m 16,1 km/h (3 Bft) 100,00 %
22.08.2021 11:40 19,9 C 20,6 C 18,9 C 82 % 1015,9 hPa 0,0 l/m 2 min 0 min 751 W/m 16,1 km/h (3 Bft) 100,00 %
22.08.2021 11:42 20,0 C 21,1 C 19,5 C 82 % 1015,8 hPa 0,0 l/m 2 min 0 min 751 W/m 19,3 km/h (3 Bft) 100,00 %
22.08.2021 11:44 20,1 C 21,1 C 20,0 C 82 % 1015,8 hPa 0,0 l/m 2 min 0 min 674 W/m 12,9 km/h (3 Bft) 100,00 %
22.08.2021 11:46 20,3 C 21,1 C 20,0 C 81 % 1015,8 hPa 0,0 l/m 0 min 0 min 299 W/m 12,9 km/h (3 Bft) 100,00 %
22.08.2021 11:48 20,3 C 21,1 C 19,5 C 80 % 1015,8 hPa 0,0 l/m 0 min 0 min 297 W/m 25,7 km/h (4 Bft) 100,00 %
22.08.2021 11:50 20,3 C 20,6 C 19,5 C 79 % 1015,7 hPa 0,0 l/m 0 min 0 min 308 W/m 19,3 km/h (3 Bft) 100,00 %
22.08.2021 11:52 20,3 C 21,1 C 19,5 C 78 % 1015,8 hPa 0,0 l/m 0 min 0 min 295 W/m 19,3 km/h (3 Bft) 100,00 %
22.08.2021 11:54 20,3 C 20,6 C 19,5 C 78 % 1015,7 hPa 0,0 l/m 0 min 0 min 295 W/m 19,3 km/h (3 Bft) 100,00 %
22.08.2021 11:56 20,3 C 20,6 C 19,5 C 77 % 1015,8 hPa 0,0 l/m 0 min 0 min 295 W/m 25,7 km/h (4 Bft) 100,00 %
22.08.2021 11:58 20,4 C 21,1 C 20,0 C 78 % 1015,8 hPa 0,0 l/m 2 min 0 min 557 W/m 12,9 km/h (3 Bft) 100,00 %
22.08.2021 12:00 20,4 C 21,7 C 21,1 C 78 % 1015,8 hPa 0,0 l/m 2 min 0 min 613 W/m 19,3 km/h (3 Bft) 100,00 %
22.08.2021 12:02 20,5 C 21,7 C 21,1 C 78 % 1015,8 hPa 0,0 l/m 2 min 0 min 536 W/m 19,3 km/h (3 Bft) 100,00 %
22.08.2021 12:04 20,6 C 22,2 C 21,1 C 77 % 1015,7 hPa 0,0 l/m 2 min 0 min 520 W/m 22,5 km/h (4 Bft) 100,00 %
22.08.2021 12:08 20,8 C 22,8 C 21,7 C 77 % 1015,7 hPa 0,0 l/m 4 min 0 min 558 W/m 22,5 km/h (4 Bft) 100,00 %
22.08.2021 12:10 20,9 C 23,3 C 22,3 C 77 % 1015,7 hPa 0,0 l/m 2 min 0 min 616 W/m 16,1 km/h (3 Bft) 100,00 %
22.08.2021 12:12 21,0 C 23,3 C 22,3 C 76 % 1015,7 hPa 0,0 l/m 2 min 0 min 733 W/m 29,0 km/h (5 Bft) 97,87 %
22.08.2021 12:14 21,1 C 23,3 C 22,8 C 76 % 1015,7 hPa 0,0 l/m 2 min 0 min 784 W/m 25,7 km/h (4 Bft) 97,87 %
22.08.2021 12:16 21,2 C 23,3 C 22,8 C 75 % 1015,7 hPa 0,0 l/m 2 min 0 min 783 W/m 29,0 km/h (5 Bft) 100,00 %
22.08.2021 12:18 21,2 C 22,2 C 21,7 C 74 % 1015,7 hPa 0,0 l/m 2 min 0 min 748 W/m 29,0 km/h (5 Bft) 100,00 %
22.08.2021 12:20 21,2 C 22,2 C 21,1 C 75 % 1015,7 hPa 0,0 l/m 0 min 0 min 303 W/m 16,1 km/h (3 Bft) 100,00 %
22.08.2021 12:22 21,2 C 22,2 C 20,6 C 75 % 1015,7 hPa 0,0 l/m 2 min 0 min 376 W/m 19,3 km/h (3 Bft) 100,00 %
22.08.2021 12:24 21,1 C 21,1 C 20,0 C 75 % 1015,7 hPa 0,0 l/m 0 min 0 min 152 W/m 16,1 km/h (3 Bft) 97,87 %
22.08.2021 12:26 21,0 C 20,6 C 19,5 C 73 % 1015,7 hPa 0,0 l/m 0 min 0 min 156 W/m 19,3 km/h (3 Bft) 97,87 %
22.08.2021 12:28 20,9 C 20,6 C 19,5 C 73 % 1015,7 hPa 0,0 l/m 0 min 0 min 190 W/m 22,5 km/h (4 Bft) 97,87 %
22.08.2021 12:30 20,8 C 21,1 C 19,5 C 73 % 1015,7 hPa 0,0 l/m 2 min 0 min 410 W/m 22,5 km/h (4 Bft) 97,87 %
22.08.2021 12:32 20,8 C 21,1 C 20,0 C 74 % 1015,7 hPa 0,0 l/m 2 min 0 min 430 W/m 22,5 km/h (4 Bft) 97,87 %
22.08.2021 12:34 20,8 C 21,7 C 20,0 C 74 % 1015,6 hPa 0,0 l/m 2 min 0 min 431 W/m 19,3 km/h (3 Bft) 93,48 %
22.08.2021 12:36 20,9 C 22,8 C 20,6 C 73 % 1015,6 hPa 0,0 l/m 2 min 0 min 684 W/m 19,3 km/h (3 Bft) 97,87 %
22.08.2021 12:38 21,1 C 23,9 C 21,1 C 74 % 1015,6 hPa 0,0 l/m 2 min 0 min 923 W/m 19,3 km/h (3 Bft) 95,74 %
22.08.2021 12:40 21,4 C 23,9 C 21,1 C 73 % 1015,7 hPa 0,0 l/m 2 min 0 min 914 W/m 25,7 km/h (4 Bft) 97,87 %
22.08.2021 12:42 21,6 C 23,9 C 21,1 C 73 % 1015,6 hPa 0,0 l/m 2 min 0 min 1000 W/m 35,4 km/h (5 Bft) 97,87 %
22.08.2021 12:44 21,8 C 24,4 C 21,1 C 72 % 1015,7 hPa 0,0 l/m 2 min 0 min 1045 W/m 25,7 km/h (4 Bft) 97,83 %
22.08.2021 12:46 22,0 C 24,4 C 21,1 C 72 % 1015,6 hPa 0,0 l/m 2 min 0 min 1035 W/m 29,0 km/h (5 Bft) 97,87 %
22.08.2021 12:48 22,1 C 23,9 C 21,1 C 72 % 1015,5 hPa 0,0 l/m 2 min 0 min 837 W/m 16,1 km/h (3 Bft) 95,74 %
22.08.2021 12:50 22,3 C 23,3 C 21,1 C 71 % 1015,6 hPa 0,0 l/m 2 min 0 min 654 W/m 16,1 km/h (3 Bft) 95,74 %
22.08.2021 12:52 22,2 C 23,3 C 20,6 C 70 % 1015,6 hPa 0,0 l/m 2 min 0 min 641 W/m 16,1 km/h (3 Bft) 91,49 %
22.08.2021 12:54 22,0 C 22,8 C 20,6 C 70 % 1015,6 hPa 0,0 l/m 2 min 0 min 482 W/m 22,5 km/h (4 Bft) 97,87 %
22.08.2021 12:56 21,9 C 22,2 C 20,6 C 70 % 1015,6 hPa 0,0 l/m 2 min 0 min 435 W/m 22,5 km/h (4 Bft) 93,48 %
22.08.2021 12:58 21,8 C 22,2 C 20,6 C 71 % 1015,6 hPa 0,0 l/m 0 min 0 min 352 W/m 12,9 km/h (3 Bft) 95,74 %
22.08.2021 13:00 21,8 C 22,2 C 20,0 C 71 % 1015,6 hPa 0,0 l/m 0 min 0 min 361 W/m 25,7 km/h (4 Bft) 95,74 %
22.08.2021 13:02 21,6 C 21,7 C 20,0 C 71 % 1015,7 hPa 0,0 l/m 0 min 0 min 363 W/m 12,9 km/h (3 Bft) 97,87 %
22.08.2021 13:04 21,6 C 21,7 C 20,0 C 71 % 1015,6 hPa 0,0 l/m 2 min 0 min 376 W/m 19,3 km/h (3 Bft) 95,74 %
22.08.2021 13:06 21,6 C 22,2 C 20,0 C 72 % 1015,6 hPa 0,0 l/m 2 min 0 min 432 W/m 16,1 km/h (3 Bft) 97,87 %
22.08.2021 13:08 21,6 C 22,2 C 20,0 C 72 % 1015,6 hPa 0,0 l/m 0 min 0 min 364 W/m 22,5 km/h (4 Bft) 97,83 %
22.08.2021 13:10 21,6 C 21,7 C 20,0 C 72 % 1015,7 hPa 0,0 l/m 2 min 0 min 402 W/m 12,9 km/h (3 Bft) 97,87 %
22.08.2021 13:12 21,5 C 22,2 C 20,0 C 72 % 1015,6 hPa 0,0 l/m 2 min 0 min 417 W/m 6,4 km/h (2 Bft) 97,87 %
22.08.2021 13:14 21,5 C 21,7 C 20,0 C 72 % 1015,6 hPa 0,0 l/m 2 min 0 min 405 W/m 19,3 km/h (3 Bft) 95,74 %
22.08.2021 13:16 21,5 C 21,7 C 20,0 C 73 % 1015,7 hPa 0,0 l/m 2 min 0 min 422 W/m 12,9 km/h (3 Bft) 97,87 %
22.08.2021 13:18 21,5 C 21,7 C 20,0 C 72 % 1015,6 hPa 0,0 l/m 2 min 0 min 433 W/m 16,1 km/h (3 Bft) 97,87 %
22.08.2021 13:20 21,5 C 21,7 C 19,5 C 72 % 1015,6 hPa 0,0 l/m 2 min 0 min 433 W/m 6,4 km/h (2 Bft) 95,65 %
22.08.2021 13:22 21,5 C 21,7 C 19,5 C 73 % 1015,5 hPa 0,0 l/m 2 min 0 min 454 W/m 16,1 km/h (3 Bft) 95,74 %
22.08.2021 13:24 21,4 C 21,7 C 20,0 C 73 % 1015,5 hPa 0,0 l/m 2 min 0 min 519 W/m 16,1 km/h (3 Bft) 97,87 %
22.08.2021 13:26 21,5 C 22,2 C 20,0 C 72 % 1015,6 hPa 0,0 l/m 2 min 0 min 599 W/m 12,9 km/h (3 Bft) 97,87 %
22.08.2021 13:28 21,5 C 21,7 C 19,5 C 72 % 1015,4 hPa 0,0 l/m 2 min 0 min 599 W/m 29,0 km/h (5 Bft) 100,00 %
22.08.2021 13:30 21,5 C 22,2 C 20,0 C 72 % 1015,4 hPa 0,0 l/m 2 min 0 min 615 W/m 16,1 km/h (3 Bft) 95,74 %
22.08.2021 13:32 21,6 C 22,2 C 20,0 C 72 % 1015,4 hPa 0,0 l/m 2 min 0 min 685 W/m 22,5 km/h (4 Bft) 100,00 %
22.08.2021 13:34 21,6 C 22,8 C 20,0 C 72 % 1015,4 hPa 0,0 l/m 2 min 0 min 686 W/m 16,1 km/h (3 Bft) 97,87 %
22.08.2021 13:36 21,8 C 23,3 C 20,0 C 71 % 1015,4 hPa 0,0 l/m 2 min 0 min 794 W/m 19,3 km/h (3 Bft) 97,87 %
22.08.2021 13:38 22,0 C 24,4 C 20,6 C 71 % 1015,4 hPa 0,0 l/m 2 min 0 min 988 W/m 16,1 km/h (3 Bft) 97,87 %
22.08.2021 13:40 22,2 C 25,0 C 20,6 C 71 % 1015,4 hPa 0,0 l/m 2 min 0 min 1020 W/m 19,3 km/h (3 Bft) 100,00 %
22.08.2021 13:42 22,4 C 25,0 C 20,6 C 69 % 1015,5 hPa 0,0 l/m 2 min 0 min 925 W/m 19,3 km/h (3 Bft) 97,87 %
22.08.2021 13:44 22,5 C 25,0 C 20,6 C 69 % 1015,5 hPa 0,0 l/m 2 min 0 min 874 W/m 19,3 km/h (3 Bft) 95,65 %
22.08.2021 13:46 22,5 C 23,9 C 20,6 C 68 % 1015,5 hPa 0,0 l/m 2 min 0 min 858 W/m 19,3 km/h (3 Bft) 97,87 %
22.08.2021 13:48 22,6 C 23,9 C 20,6 C 69 % 1015,4 hPa 0,0 l/m 2 min 0 min 686 W/m 16,1 km/h (3 Bft) 97,87 %
22.08.2021 13:50 22,6 C 23,9 C 20,6 C 69 % 1015,6 hPa 0,0 l/m 2 min 0 min 781 W/m 22,5 km/h (4 Bft) 97,87 %
22.08.2021 13:52 22,6 C 23,9 C 20,6 C 69 % 1015,4 hPa 0,0 l/m 2 min 0 min 819 W/m 16,1 km/h (3 Bft) 97,87 %
22.08.2021 13:54 22,6 C 24,4 C 20,6 C 70 % 1015,4 hPa 0,0 l/m 2 min 0 min 962 W/m 16,1 km/h (3 Bft) 97,87 %
22.08.2021 13:56 22,8 C 25,0 C 20,6 C 70 % 1015,3 hPa 0,0 l/m 2 min 0 min 978 W/m 12,9 km/h (3 Bft) 97,83 %
22.08.2021 13:58 22,9 C 25,6 C 20,6 C 71 % 1015,3 hPa 0,0 l/m 2 min 0 min 980 W/m 29,0 km/h (5 Bft) 97,87 %
22.08.2021 14:00 22,9 C 25,0 C 20,6 C 69 % 1015,4 hPa 0,0 l/m 2 min 0 min 967 W/m 25,7 km/h (4 Bft) 97,87 %
22.08.2021 14:02 22,9 C 25,0 C 20,6 C 69 % 1015,3 hPa 0,0 l/m 2 min 0 min 967 W/m 19,3 km/h (3 Bft) 95,74 %
22.08.2021 14:04 22,9 C 25,0 C 20,6 C 69 % 1015,4 hPa 0,0 l/m 2 min 0 min 1046 W/m 22,5 km/h (4 Bft) 97,87 %
22.08.2021 14:06 23,0 C 25,0 C 20,6 C 70 % 1015,3 hPa 0,0 l/m 2 min 0 min 642 W/m 12,9 km/h (3 Bft) 97,87 %
22.08.2021 14:08 23,0 C 25,0 C 20,6 C 70 % 1015,3 hPa 0,0 l/m 2 min 0 min 461 W/m 19,3 km/h (3 Bft) 97,83 %
22.08.2021 14:10 23,1 C 25,0 C 21,1 C 70 % 1015,3 hPa 0,0 l/m 2 min 0 min 394 W/m 32,2 km/h (5 Bft) 97,87 %
22.08.2021 14:12 23,1 C 25,6 C 21,1 C 70 % 1015,4 hPa 0,0 l/m 2 min 0 min 537 W/m 22,5 km/h (4 Bft) 97,87 %
22.08.2021 14:14 23,1 C 26,1 C 21,1 C 71 % 1015,3 hPa 0,0 l/m 2 min 0 min 927 W/m 16,1 km/h (3 Bft) 97,87 %
22.08.2021 14:16 23,3 C 26,1 C 21,1 C 70 % 1015,3 hPa 0,0 l/m 2 min 0 min 811 W/m 16,1 km/h (3 Bft) 97,87 %
22.08.2021 14:18 23,3 C 25,6 C 21,1 C 70 % 1015,3 hPa 0,0 l/m 2 min 0 min 404 W/m 12,9 km/h (3 Bft) 97,87 %
22.08.2021 14:20 23,3 C 25,0 C 20,6 C 69 % 1015,3 hPa 0,0 l/m 0 min 0 min 324 W/m 19,3 km/h (3 Bft) 97,83 %
22.08.2021 14:22 23,3 C 24,4 C 20,6 C 69 % 1015,2 hPa 0,0 l/m 0 min 0 min 362 W/m 16,1 km/h (3 Bft) 97,87 %
22.08.2021 14:24 23,3 C 24,4 C 20,6 C 70 % 1015,3 hPa 0,0 l/m 2 min 0 min 397 W/m 12,9 km/h (3 Bft) 95,74 %
22.08.2021 14:26 23,1 C 25,0 C 20,6 C 70 % 1015,5 hPa 0,0 l/m 2 min 0 min 609 W/m 25,7 km/h (4 Bft) 97,87 %
22.08.2021 14:28 23,2 C 25,0 C 20,6 C 70 % 1015,3 hPa 0,0 l/m 2 min 0 min 849 W/m 16,1 km/h (3 Bft) 97,87 %
22.08.2021 14:30 23,1 C 25,0 C 20,6 C 70 % 1015,4 hPa 0,0 l/m 2 min 0 min 835 W/m 16,1 km/h (3 Bft) 97,87 %
22.08.2021 14:32 23,1 C 25,0 C 20,6 C 71 % 1015,4 hPa 0,0 l/m 2 min 0 min 778 W/m 19,3 km/h (3 Bft) 91,30 %
22.08.2021 14:34 23,0 C 24,4 C 20,0 C 71 % 1015,5 hPa 0,0 l/m 2 min 0 min 739 W/m 32,2 km/h (5 Bft) 95,74 %
22.08.2021 14:36 22,9 C 24,4 C 20,0 C 71 % 1015,4 hPa 0,0 l/m 2 min 0 min 726 W/m 16,1 km/h (3 Bft) 95,74 %
22.08.2021 14:38 22,9 C 25,0 C 20,0 C 71 % 1015,5 hPa 0,0 l/m 2 min 0 min 711 W/m 16,1 km/h (3 Bft) 95,74 %
22.08.2021 14:40 22,6 C 23,9 C 20,0 C 72 % 1015,5 hPa 0,0 l/m 2 min 0 min 651 W/m 16,1 km/h (3 Bft) 95,74 %
22.08.2021 14:42 22,5 C 24,4 C 20,0 C 73 % 1015,5 hPa 0,0 l/m 2 min 0 min 515 W/m 16,1 km/h (3 Bft) 95,65 %
22.08.2021 14:44 22,5 C 24,4 C 20,0 C 73 % 1015,5 hPa 0,0 l/m 2 min 0 min 735 W/m 12,9 km/h (3 Bft) 97,87 %
22.08.2021 14:46 22,5 C 25,0 C 20,0 C 73 % 1015,5 hPa 0,0 l/m 2 min 0 min 742 W/m 25,7 km/h (4 Bft) 97,87 %
22.08.2021 14:48 22,5 C 25,0 C 20,0 C 74 % 1015,5 hPa 0,0 l/m 2 min 0 min 743 W/m 12,9 km/h (3 Bft) 95,74 %
22.08.2021 14:50 22,6 C 25,6 C 20,0 C 73 % 1015,5 hPa 0,0 l/m 2 min 0 min 760 W/m 16,1 km/h (3 Bft) 95,74 %
22.08.2021 14:52 22,6 C 25,0 C 20,0 C 73 % 1015,6 hPa 0,0 l/m 2 min 0 min 741 W/m 22,5 km/h (4 Bft) 97,87 %
22.08.2021 14:54 22,6 C 25,0 C 20,0 C 72 % 1015,6 hPa 0,0 l/m 2 min 0 min 743 W/m 16,1 km/h (3 Bft) 97,83 %
22.08.2021 14:56 22,5 C 25,0 C 20,0 C 72 % 1015,5 hPa 0,0 l/m 2 min 0 min 728 W/m 16,1 km/h (3 Bft) 97,87 %
22.08.2021 14:58 22,6 C 25,0 C 20,0 C 73 % 1015,6 hPa 0,0 l/m 2 min 0 min 726 W/m 9,7 km/h (2 Bft) 97,87 %
22.08.2021 15:00 22,8 C 25,0 C 20,0 C 73 % 1015,6 hPa 0,0 l/m 2 min 0 min 763 W/m 6,4 km/h (2 Bft) 97,87 %
22.08.2021 15:02 22,9 C 25,6 C 20,0 C 72 % 1015,6 hPa 0,0 l/m 2 min 0 min 804 W/m 25,7 km/h (4 Bft) 97,87 %
22.08.2021 15:04 22,9 C 25,0 C 20,0 C 72 % 1015,5 hPa 0,0 l/m 2 min 0 min 833 W/m 19,3 km/h (3 Bft) 97,87 %
22.08.2021 15:06 22,8 C 25,6 C 20,0 C 71 % 1015,6 hPa 0,0 l/m 2 min 0 min 842 W/m 16,1 km/h (3 Bft) 100,00 %
22.08.2021 15:08 22,8 C 25,0 C 20,6 C 72 % 1015,6 hPa 0,0 l/m 2 min 0 min 845 W/m 19,3 km/h (3 Bft) 100,00 %
22.08.2021 15:10 22,8 C 25,0 C 20,0 C 71 % 1015,6 hPa 0,0 l/m 0 min 0 min 304 W/m 16,1 km/h (3 Bft) 100,00 %
22.08.2021 15:12 22,7 C 24,4 C 20,0 C 72 % 1015,7 hPa 0,0 l/m 0 min 0 min 304 W/m 12,9 km/h (3 Bft) 100,00 %
22.08.2021 15:14 22,6 C 24,4 C 20,0 C 72 % 1015,6 hPa 0,0 l/m 0 min 0 min 288 W/m 12,9 km/h (3 Bft) 100,00 %
22.08.2021 15:16 22,7 C 23,9 C 20,0 C 72 % 1015,7 hPa 0,0 l/m 0 min 0 min 294 W/m 16,1 km/h (3 Bft) 100,00 %
22.08.2021 15:18 22,6 C 23,9 C 20,0 C 72 % 1015,7 hPa 0,0 l/m 0 min 0 min 322 W/m 12,9 km/h (3 Bft) 97,87 %
22.08.2021 15:20 22,7 C 24,4 C 20,0 C 73 % 1015,6 hPa 0,0 l/m 0 min 0 min 341 W/m 9,7 km/h (2 Bft) 93,62 %
22.08.2021 15:22 22,8 C 24,4 C 20,0 C 73 % 1015,6 hPa 0,0 l/m 2 min 0 min 515 W/m 12,9 km/h (3 Bft) 97,87 %
22.08.2021 15:24 22,8 C 25,6 C 20,0 C 73 % 1015,7 hPa 0,0 l/m 2 min 0 min 924 W/m 22,5 km/h (4 Bft) 93,48 %
22.08.2021 15:26 22,9 C 26,1 C 20,0 C 72 % 1015,5 hPa 0,0 l/m 2 min 0 min 872 W/m 16,1 km/h (3 Bft) 97,87 %
22.08.2021 15:28 23,0 C 25,6 C 20,0 C 71 % 1015,6 hPa 0,0 l/m 2 min 0 min 830 W/m 22,5 km/h (4 Bft) 97,87 %
22.08.2021 15:30 22,9 C 24,4 C 20,0 C 71 % 1015,5 hPa 0,0 l/m 2 min 0 min 342 W/m 12,9 km/h (3 Bft) 97,87 %
22.08.2021 15:32 22,8 C 23,9 C 20,0 C 71 % 1015,4 hPa 0,0 l/m 2 min 0 min 810 W/m 16,1 km/h (3 Bft) 95,74 %
22.08.2021 15:34 22,8 C 23,3 C 20,0 C 71 % 1015,4 hPa 0,0 l/m 0 min 0 min 236 W/m 19,3 km/h (3 Bft) 97,87 %
22.08.2021 15:36 22,5 C 22,8 C 19,5 C 72 % 1015,5 hPa 0,0 l/m 0 min 0 min 217 W/m 19,3 km/h (3 Bft) 97,83 %
22.08.2021 15:38 22,4 C 22,8 C 20,0 C 73 % 1015,5 hPa 0,0 l/m 0 min 0 min 310 W/m 12,9 km/h (3 Bft) 91,49 %
22.08.2021 15:40 22,5 C 23,9 C 20,0 C 73 % 1015,6 hPa 0,0 l/m 2 min 0 min 631 W/m 16,1 km/h (3 Bft) 97,87 %
22.08.2021 15:42 22,5 C 24,4 C 20,0 C 73 % 1015,5 hPa 0,0 l/m 2 min 0 min 742 W/m 16,1 km/h (3 Bft) 95,74 %
22.08.2021 15:44 22,5 C 23,9 C 20,0 C 73 % 1015,4 hPa 0,0 l/m 0 min 0 min 277 W/m 9,7 km/h (2 Bft) 97,87 %
22.08.2021 15:46 22,5 C 23,3 C 20,0 C 73 % 1015,5 hPa 0,0 l/m 0 min 0 min 230 W/m 12,9 km/h (3 Bft) 97,87 %
22.08.2021 15:48 22,4 C 22,8 C 19,5 C 73 % 1015,5 hPa 0,0 l/m 0 min 0 min 194 W/m 19,3 km/h (3 Bft) 97,83 %
22.08.2021 15:50 22,3 C 22,8 C 19,5 C 73 % 1015,4 hPa 0,0 l/m 0 min 0 min 198 W/m 16,1 km/h (3 Bft) 97,87 %
22.08.2021 15:52 22,3 C 23,3 C 19,5 C 74 % 1015,5 hPa 0,0 l/m 0 min 0 min 207 W/m 16,1 km/h (3 Bft) 97,87 %
22.08.2021 15:54 22,2 C 22,8 C 19,5 C 73 % 1015,5 hPa 0,0 l/m 0 min 0 min 260 W/m 22,5 km/h (4 Bft) 95,74 %
22.08.2021 15:56 22,1 C 22,2 C 19,5 C 73 % 1015,5 hPa 0,0 l/m 0 min 0 min 233 W/m 19,3 km/h (3 Bft) 97,87 %
22.08.2021 15:58 22,0 C 22,2 C 19,5 C 74 % 1015,6 hPa 0,0 l/m 0 min 0 min 240 W/m 9,7 km/h (2 Bft) 95,74 %
22.08.2021 16:00 21,9 C 22,2 C 19,5 C 74 % 1015,4 hPa 0,0 l/m 0 min 0 min 222 W/m 16,1 km/h (3 Bft) 95,65 %
22.08.2021 16:02 21,9 C 22,8 C 19,5 C 75 % 1015,5 hPa 0,0 l/m 0 min 0 min 209 W/m 6,4 km/h (2 Bft) 100,00 %
22.08.2021 16:04 21,9 C 22,8 C 19,5 C 75 % 1015,5 hPa 0,0 l/m 0 min 0 min 254 W/m 19,3 km/h (3 Bft) 100,00 %
22.08.2021 16:06 21,9 C 23,9 C 19,5 C 76 % 1015,6 hPa 0,0 l/m 2 min 0 min 399 W/m 19,3 km/h (3 Bft) 100,00 %
22.08.2021 16:08 21,9 C 23,3 C 19,5 C 75 % 1015,5 hPa 0,0 l/m 2 min 0 min 408 W/m 22,5 km/h (4 Bft) 97,87 %
22.08.2021 16:10 21,9 C 23,3 C 19,5 C 75 % 1015,5 hPa 0,0 l/m 0 min 0 min 245 W/m 16,1 km/h (3 Bft) 100,00 %
22.08.2021 16:12 21,8 C 22,8 C 19,5 C 75 % 1015,6 hPa 0,0 l/m 0 min 0 min 265 W/m 16,1 km/h (3 Bft) 100,00 %
22.08.2021 16:14 21,8 C 22,2 C 18,9 C 74 % 1015,6 hPa 0,0 l/m 0 min 0 min 189 W/m 35,4 km/h (5 Bft) 100,00 %
22.08.2021 16:16 21,6 C 21,7 C 18,9 C 75 % 1015,6 hPa 0,0 l/m 0 min 0 min 152 W/m 22,5 km/h (4 Bft) 100,00 %
22.08.2021 16:18 21,5 C 21,1 C 18,9 C 75 % 1015,6 hPa 0,0 l/m 0 min 0 min 142 W/m 12,9 km/h (3 Bft) 100,00 %
22.08.2021 16:20 21,4 C 21,1 C 18,9 C 75 % 1015,6 hPa 0,0 l/m 0 min 0 min 146 W/m 16,1 km/h (3 Bft) 100,00 %
22.08.2021 16:22 21,3 C 21,1 C 18,4 C 75 % 1015,6 hPa 0,0 l/m 0 min 0 min 138 W/m 16,1 km/h (3 Bft) 100,00 %
22.08.2021 16:24 21,3 C 21,7 C 18,4 C 76 % 1015,5 hPa 0,0 l/m 0 min 0 min 162 W/m 12,9 km/h (3 Bft) 100,00 %
22.08.2021 16:26 21,2 C 22,2 C 18,4 C 76 % 1015,6 hPa 0,0 l/m 2 min 0 min 348 W/m 9,7 km/h (2 Bft) 100,00 %
22.08.2021 16:28 21,2 C 22,8 C 18,9 C 76 % 1015,6 hPa 0,0 l/m 2 min 0 min 350 W/m 22,5 km/h (4 Bft) 97,87 %
22.08.2021 16:30 21,2 C 22,8 C 18,9 C 76 % 1015,6 hPa 0,0 l/m 2 min 0 min 324 W/m 16,1 km/h (3 Bft) 100,00 %
22.08.2021 16:32 21,3 C 22,8 C 18,9 C 76 % 1015,6 hPa 0,0 l/m 0 min 0 min 278 W/m 12,9 km/h (3 Bft) 100,00 %
22.08.2021 16:34 21,3 C 23,3 C 18,9 C 76 % 1015,6 hPa 0,0 l/m 2 min 0 min 367 W/m 12,9 km/h (3 Bft) 100,00 %
22.08.2021 16:36 21,4 C 23,9 C 18,9 C 76 % 1015,6 hPa 0,0 l/m 2 min 0 min 506 W/m 12,9 km/h (3 Bft) 97,83 %
22.08.2021 16:38 21,5 C 25,0 C 18,9 C 76 % 1015,7 hPa 0,0 l/m 2 min 0 min 552 W/m 16,1 km/h (3 Bft) 97,87 %
22.08.2021 16:40 21,6 C 26,1 C 18,9 C 76 % 1015,7 hPa 0,0 l/m 2 min 0 min 587 W/m 9,7 km/h (2 Bft) 97,87 %
22.08.2021 16:42 21,7 C 27,2 C 19,5 C 76 % 1015,7 hPa 0,0 l/m 2 min 0 min 641 W/m 6,4 km/h (2 Bft) 97,87 %
22.08.2021 16:44 21,9 C 27,8 C 19,5 C 76 % 1015,6 hPa 0,0 l/m 2 min 0 min 633 W/m 16,1 km/h (3 Bft) 95,74 %
22.08.2021 16:46 22,0 C 28,3 C 19,5 C 75 % 1015,6 hPa 0,0 l/m 2 min 0 min 608 W/m 9,7 km/h (2 Bft) 95,74 %
22.08.2021 16:48 22,1 C 28,3 C 19,5 C 76 % 1015,6 hPa 0,0 l/m 2 min 0 min 626 W/m 16,1 km/h (3 Bft) 95,65 %
22.08.2021 16:50 22,3 C 28,3 C 20,0 C 74 % 1015,6 hPa 0,0 l/m 2 min 0 min 618 W/m 29,0 km/h (5 Bft) 97,87 %
22.08.2021 16:52 22,3 C 26,7 C 19,5 C 74 % 1015,7 hPa 0,0 l/m 2 min 0 min 584 W/m 19,3 km/h (3 Bft) 95,74 %
22.08.2021 16:54 22,3 C 25,6 C 19,5 C 74 % 1015,6 hPa 0,0 l/m 2 min 0 min 289 W/m 22,5 km/h (4 Bft) 97,87 %
22.08.2021 16:56 22,2 C 26,1 C 19,5 C 74 % 1015,6 hPa 0,0 l/m 2 min 0 min 380 W/m 6,4 km/h (2 Bft) 97,87 %
22.08.2021 16:58 22,3 C 27,2 C 19,5 C 75 % 1015,5 hPa 0,0 l/m 2 min 0 min 500 W/m 16,1 km/h (3 Bft) 97,87 %
22.08.2021 17:00 22,4 C 26,7 C 20,0 C 75 % 1015,5 hPa 0,0 l/m 2 min 0 min 599 W/m 9,7 km/h (2 Bft) 97,83 %
22.08.2021 17:02 22,4 C 27,2 C 20,0 C 73 % 1015,5 hPa 0,0 l/m 2 min 0 min 591 W/m 16,1 km/h (3 Bft) 95,74 %
22.08.2021 17:04 22,5 C 27,2 C 20,0 C 73 % 1015,6 hPa 0,0 l/m 2 min 0 min 556 W/m 12,9 km/h (3 Bft) 97,87 %
22.08.2021 17:06 22,5 C 26,1 C 20,0 C 73 % 1015,5 hPa 0,0 l/m 2 min 0 min 315 W/m 25,7 km/h (4 Bft) 93,62 %
22.08.2021 17:08 22,5 C 26,7 C 20,0 C 73 % 1015,6 hPa 0,0 l/m 2 min 0 min 459 W/m 16,1 km/h (3 Bft) 95,74 %
22.08.2021 17:10 22,5 C 27,2 C 20,0 C 73 % 1015,5 hPa 0,0 l/m 2 min 0 min 554 W/m 9,7 km/h (2 Bft) 95,74 %
22.08.2021 17:12 22,6 C 27,8 C 20,0 C 72 % 1015,5 hPa 0,0 l/m 2 min 0 min 536 W/m 12,9 km/h (3 Bft) 95,65 %
22.08.2021 17:14 22,7 C 28,3 C 20,0 C 73 % 1015,5 hPa 0,0 l/m 2 min 0 min 532 W/m 16,1 km/h (3 Bft) 95,74 %
22.08.2021 17:16 22,8 C 27,2 C 20,0 C 72 % 1015,6 hPa 0,0 l/m 2 min 0 min 494 W/m 19,3 km/h (3 Bft) 97,87 %
22.08.2021 17:18 22,9 C 26,7 C 20,0 C 72 % 1015,5 hPa 0,0 l/m 2 min 0 min 513 W/m 9,7 km/h (2 Bft) 97,87 %
22.08.2021 17:20 22,9 C 26,7 C 20,0 C 71 % 1015,5 hPa 0,0 l/m 2 min 0 min 309 W/m 16,1 km/h (3 Bft) 95,74 %
22.08.2021 17:22 22,9 C 27,2 C 20,0 C 72 % 1015,5 hPa 0,0 l/m 2 min 0 min 489 W/m 12,9 km/h (3 Bft) 97,87 %
22.08.2021 17:24 22,8 C 26,7 C 20,0 C 72 % 1015,5 hPa 0,0 l/m 2 min 0 min 494 W/m 12,9 km/h (3 Bft) 97,83 %
22.08.2021 17:26 22,8 C 26,7 C 20,0 C 72 % 1015,5 hPa 0,0 l/m 2 min 0 min 515 W/m 12,9 km/h (3 Bft) 95,74 %
22.08.2021 17:28 22,9 C 27,2 C 20,6 C 72 % 1015,5 hPa 0,0 l/m 2 min 0 min 515 W/m 9,7 km/h (2 Bft) 97,87 %
22.08.2021 17:30 22,9 C 27,2 C 20,6 C 72 % 1015,5 hPa 0,0 l/m 2 min 0 min 514 W/m 16,1 km/h (3 Bft) 97,87 %
22.08.2021 17:32 23,0 C 27,2 C 20,6 C 72 % 1015,5 hPa 0,0 l/m 2 min 0 min 497 W/m 16,1 km/h (3 Bft) 100,00 %
22.08.2021 17:34 23,0 C 26,7 C 20,6 C 72 % 1015,5 hPa 0,0 l/m 2 min 0 min 543 W/m 6,4 km/h (2 Bft) 97,87 %
22.08.2021 17:36 23,0 C 25,6 C 20,0 C 71 % 1015,6 hPa 0,0 l/m 2 min 0 min 475 W/m 16,1 km/h (3 Bft) 97,83 %
22.08.2021 17:38 23,0 C 26,7 C 20,6 C 71 % 1015,5 hPa 0,0 l/m 2 min 0 min 320 W/m 12,9 km/h (3 Bft) 97,87 %
22.08.2021 17:40 23,0 C 26,1 C 20,0 C 71 % 1015,5 hPa 0,0 l/m 2 min 0 min 527 W/m 12,9 km/h (3 Bft) 97,87 %
22.08.2021 17:42 23,0 C 27,2 C 20,6 C 71 % 1015,5 hPa 0,0 l/m 2 min 0 min 479 W/m 9,7 km/h (2 Bft) 97,87 %
22.08.2021 17:44 23,0 C 26,7 C 20,6 C 70 % 1015,5 hPa 0,0 l/m 2 min 0 min 403 W/m 12,9 km/h (3 Bft) 97,87 %
22.08.2021 17:46 22,9 C 26,1 C 20,6 C 70 % 1015,5 hPa 0,0 l/m 2 min 0 min 425 W/m 19,3 km/h (3 Bft) 97,83 %
22.08.2021 17:48 22,9 C 26,1 C 20,0 C 70 % 1015,5 hPa 0,0 l/m 2 min 0 min 394 W/m 12,9 km/h (3 Bft) 97,87 %
22.08.2021 17:50 22,9 C 25,0 C 20,0 C 71 % 1015,5 hPa 0,0 l/m 2 min 0 min 245 W/m 6,4 km/h (2 Bft) 95,74 %
22.08.2021 17:52 22,9 C 23,9 C 20,0 C 71 % 1015,6 hPa 0,0 l/m 0 min 0 min 161 W/m 16,1 km/h (3 Bft) 97,87 %
22.08.2021 17:54 22,8 C 23,3 C 20,0 C 72 % 1015,6 hPa 0,0 l/m 0 min 0 min 151 W/m 9,7 km/h (2 Bft) 95,74 %
22.08.2021 17:56 22,7 C 22,8 C 20,0 C 71 % 1015,6 hPa 0,0 l/m 0 min 0 min 149 W/m 6,4 km/h (2 Bft) 93,62 %
22.08.2021 17:58 22,6 C 22,2 C 20,0 C 72 % 1015,6 hPa 0,0 l/m 0 min 0 min 143 W/m 6,4 km/h (2 Bft) 95,65 %
22.08.2021 18:00 22,5 C 22,2 C 19,5 C 72 % 1015,6 hPa 0,0 l/m 0 min 0 min 156 W/m 6,4 km/h (2 Bft) 93,62 %
22.08.2021 18:02 22,5 C 22,2 C 19,5 C 72 % 1015,6 hPa 0,0 l/m 0 min 0 min 161 W/m 6,4 km/h (2 Bft) 97,87 %
22.08.2021 18:04 22,4 C 22,8 C 19,5 C 73 % 1015,6 hPa 0,0 l/m 0 min 0 min 181 W/m 12,9 km/h (3 Bft) 97,87 %
22.08.2021 18:08 22,4 C 22,2 C 19,5 C 72 % 1015,6 hPa 0,0 l/m 0 min 0 min 119 W/m 12,9 km/h (3 Bft) 97,89 %
22.08.2021 18:10 22,3 C 21,7 C 19,5 C 72 % 1015,7 hPa 0,0 l/m 0 min 0 min 105 W/m 12,9 km/h (3 Bft) 97,87 %
22.08.2021 18:12 22,1 C 21,7 C 18,9 C 72 % 1015,7 hPa 0,0 l/m 0 min 0 min 97 W/m 16,1 km/h (3 Bft) 100,00 %
22.08.2021 18:14 21,9 C 21,7 C 18,9 C 72 % 1015,7 hPa 0,0 l/m 0 min 0 min 112 W/m 9,7 km/h (2 Bft) 97,87 %
22.08.2021 18:16 21,8 C 22,2 C 18,9 C 72 % 1015,7 hPa 0,0 l/m 0 min 0 min 132 W/m 12,9 km/h (3 Bft) 95,65 %
22.08.2021 18:18 21,8 C 21,7 C 18,9 C 73 % 1015,7 hPa 0,0 l/m 0 min 0 min 109 W/m 12,9 km/h (3 Bft) 97,87 %
22.08.2021 18:20 21,7 C 21,1 C 18,9 C 73 % 1015,8 hPa 0,0 l/m 0 min 0 min 113 W/m 12,9 km/h (3 Bft) 95,74 %
22.08.2021 18:22 21,6 C 21,1 C 18,9 C 74 % 1015,8 hPa 0,0 l/m 0 min 0 min 96 W/m 12,9 km/h (3 Bft) 97,87 %
22.08.2021 18:24 21,6 C 21,1 C 18,9 C 75 % 1015,8 hPa 0,0 l/m 0 min 0 min 84 W/m 12,9 km/h (3 Bft) 97,87 %
22.08.2021 18:26 21,5 C 20,6 C 18,9 C 75 % 1015,8 hPa 0,0 l/m 0 min 0 min 74 W/m 12,9 km/h (3 Bft) 97,87 %
22.08.2021 18:28 21,5 C 20,6 C 18,9 C 75 % 1015,8 hPa 0,0 l/m 0 min 0 min 58 W/m 16,1 km/h (3 Bft) 97,83 %
22.08.2021 18:30 21,4 C 20,6 C 18,4 C 76 % 1015,8 hPa 0,0 l/m 0 min 0 min 53 W/m 9,7 km/h (2 Bft) 97,87 %
22.08.2021 18:32 21,4 C 20,6 C 18,4 C 76 % 1015,8 hPa 0,0 l/m 0 min 0 min 55 W/m 12,9 km/h (3 Bft) 97,87 %
22.08.2021 18:34 21,4 C 20,6 C 18,4 C 76 % 1015,8 hPa 0,0 l/m 0 min 0 min 60 W/m 16,1 km/h (3 Bft) 97,87 %
22.08.2021 18:36 21,3 C 20,6 C 18,4 C 76 % 1015,8 hPa 0,0 l/m 0 min 0 min 65 W/m 22,5 km/h (4 Bft) 97,87 %
22.08.2021 18:38 21,1 C 20,6 C 18,4 C 77 % 1015,9 hPa 0,0 l/m 0 min 0 min 76 W/m 12,9 km/h (3 Bft) 100,00 %
22.08.2021 18:40 21,0 C 20,6 C 18,4 C 77 % 1015,9 hPa 0,0 l/m 0 min 0 min 100 W/m 16,1 km/h (3 Bft) 95,65 %
22.08.2021 18:42 21,0 C 20,6 C 18,4 C 78 % 1015,9 hPa 0,0 l/m 2 min 0 min 208 W/m 12,9 km/h (3 Bft) 97,87 %
22.08.2021 18:44 21,0 C 21,1 C 18,4 C 78 % 1015,9 hPa 0,0 l/m 2 min 0 min 230 W/m 19,3 km/h (3 Bft) 97,87 %
22.08.2021 18:46 21,0 C 21,1 C 18,4 C 78 % 1016,0 hPa 0,0 l/m 2 min 2 min 208 W/m 12,9 km/h (3 Bft) 97,87 %
22.08.2021 18:48 21,1 C 21,1 C 18,4 C 78 % 1016,0 hPa 0,0 l/m 2 min 0 min 239 W/m 12,9 km/h (3 Bft) 97,87 %
22.08.2021 18:50 21,1 C 21,1 C 18,4 C 78 % 1016,1 hPa 0,0 l/m 2 min 0 min 248 W/m 12,9 km/h (3 Bft) 95,74 %
22.08.2021 18:52 21,1 C 21,1 C 18,4 C 78 % 1016,2 hPa 0,0 l/m 2 min 0 min 164 W/m 9,7 km/h (2 Bft) 97,83 %
22.08.2021 18:54 21,1 C 21,1 C 18,4 C 78 % 1016,4 hPa 0,0 l/m 2 min 0 min 175 W/m 16,1 km/h (3 Bft) 97,87 %
22.08.2021 18:56 21,0 C 20,6 C 18,4 C 78 % 1016,2 hPa 0,0 l/m 2 min 0 min 174 W/m 22,5 km/h (4 Bft) 95,74 %
22.08.2021 18:58 21,0 C 20,6 C 18,4 C 79 % 1016,3 hPa 0,0 l/m 2 min 0 min 169 W/m 16,1 km/h (3 Bft) 97,87 %
22.08.2021 19:00 20,9 C 20,6 C 18,4 C 79 % 1016,3 hPa 0,0 l/m 2 min 0 min 154 W/m 16,1 km/h (3 Bft) 97,87 %
22.08.2021 19:02 20,9 C 20,6 C 18,4 C 78 % 1016,3 hPa 0,0 l/m 2 min 0 min 138 W/m 19,3 km/h (3 Bft) 97,83 %
22.08.2021 19:04 20,8 C 20,0 C 18,4 C 78 % 1016,3 hPa 0,0 l/m 2 min 0 min 120 W/m 12,9 km/h (3 Bft) 93,48 %
22.08.2021 19:06 20,8 C 20,0 C 18,4 C 79 % 1016,3 hPa 0,0 l/m 0 min 0 min 104 W/m 6,4 km/h (2 Bft) 93,62 %
22.08.2021 19:08 20,7 C 20,0 C 17,8 C 79 % 1016,2 hPa 0,0 l/m 0 min 0 min 87 W/m 12,9 km/h (3 Bft) 95,74 %
22.08.2021 19:10 20,6 C 20,0 C 17,8 C 79 % 1016,2 hPa 0,0 l/m 0 min 0 min 73 W/m 12,9 km/h (3 Bft) 97,87 %
22.08.2021 19:12 20,6 C 20,0 C 17,8 C 80 % 1016,2 hPa 0,0 l/m 0 min 0 min 60 W/m 6,4 km/h (2 Bft) 97,87 %
22.08.2021 19:14 20,5 C 19,4 C 17,8 C 80 % 1016,2 hPa 0,0 l/m 0 min 0 min 52 W/m 12,9 km/h (3 Bft) 95,74 %
22.08.2021 19:16 20,5 C 19,4 C 17,8 C 80 % 1016,2 hPa 0,0 l/m 0 min 0 min 46 W/m 3,2 km/h (1 Bft) 78,26 %
22.08.2021 19:18 20,4 C 19,4 C 17,8 C 81 % 1016,2 hPa 0,0 l/m 0 min 0 min 42 W/m 9,7 km/h (2 Bft) 87,23 %
22.08.2021 19:20 20,4 C 19,4 C 17,8 C 81 % 1016,3 hPa 0,0 l/m 0 min 0 min 37 W/m 12,9 km/h (3 Bft) 82,98 %
22.08.2021 19:22 20,3 C 19,4 C 17,3 C 81 % 1016,3 hPa 0,0 l/m 0 min 0 min 34 W/m 6,4 km/h (2 Bft) 93,62 %
22.08.2021 19:24 20,3 C 19,4 C 17,3 C 81 % 1016,3 hPa 0,0 l/m 0 min 0 min 33 W/m 6,4 km/h (2 Bft) 91,49 %
22.08.2021 19:26 20,2 C 19,4 C 17,3 C 82 % 1016,3 hPa 0,0 l/m 0 min 0 min 32 W/m 9,7 km/h (2 Bft) 95,65 %
22.08.2021 19:28 20,1 C 19,4 C 17,3 C 82 % 1016,3 hPa 0,0 l/m 0 min 0 min 30 W/m 16,1 km/h (3 Bft) 100,00 %
22.08.2021 19:30 20,1 C 19,4 C 17,3 C 82 % 1016,4 hPa 0,0 l/m 0 min 0 min 25 W/m 9,7 km/h (2 Bft) 100,00 %
22.08.2021 19:32 20,0 C 19,4 C 17,3 C 83 % 1016,3 hPa 0,0 l/m 0 min 0 min 21 W/m 16,1 km/h (3 Bft) 100,00 %
22.08.2021 19:34 20,0 C 18,9 C 17,3 C 83 % 1016,4 hPa 0,0 l/m 0 min 0 min 23 W/m 12,9 km/h (3 Bft) 100,00 %
22.08.2021 19:36 20,0 C 18,9 C 17,3 C 83 % 1016,5 hPa 0,0 l/m 0 min 0 min 23 W/m 16,1 km/h (3 Bft) 100,00 %
22.08.2021 19:38 20,0 C 18,9 C 17,3 C 83 % 1016,5 hPa 0,0 l/m 0 min 0 min 25 W/m 16,1 km/h (3 Bft) 100,00 %
22.08.2021 19:40 19,9 C 18,9 C 17,3 C 83 % 1016,5 hPa 0,0 l/m 0 min 0 min 26 W/m 12,9 km/h (3 Bft) 100,00 %
22.08.2021 19:42 19,9 C 18,9 C 17,3 C 83 % 1016,5 hPa 0,0 l/m 0 min 0 min 25 W/m 12,9 km/h (3 Bft) 95,74 %
22.08.2021 19:44 19,8 C 18,9 C 17,3 C 83 % 1016,5 hPa 0,0 l/m 0 min 0 min 24 W/m 16,1 km/h (3 Bft) 91,49 %
22.08.2021 19:46 19,7 C 18,9 C 17,3 C 82 % 1016,5 hPa 0,0 l/m 0 min 0 min 23 W/m 25,7 km/h (4 Bft) 87,23 %
22.08.2021 19:48 19,6 C 18,9 C 17,3 C 82 % 1016,6 hPa 0,0 l/m 0 min 0 min 21 W/m 12,9 km/h (3 Bft) 93,62 %
22.08.2021 19:50 19,6 C 18,9 C 16,7 C 82 % 1016,5 hPa 0,0 l/m 0 min 0 min 21 W/m 19,3 km/h (3 Bft) 86,96 %
22.08.2021 19:52 19,6 C 18,9 C 16,7 C 83 % 1016,6 hPa 0,0 l/m 0 min 0 min 21 W/m 6,4 km/h (2 Bft) 95,74 %
22.08.2021 19:54 19,5 C 18,9 C 16,7 C 83 % 1016,5 hPa 0,0 l/m 0 min 0 min 21 W/m 6,4 km/h (2 Bft) 93,62 %
22.08.2021 19:56 19,5 C 18,9 C 16,7 C 83 % 1016,5 hPa 0,0 l/m 0 min 0 min 21 W/m 12,9 km/h (3 Bft) 82,98 %
22.08.2021 19:58 19,5 C 18,9 C 16,7 C 83 % 1016,5 hPa 0,0 l/m 0 min 0 min 21 W/m 12,9 km/h (3 Bft) 87,23 %
22.08.2021 20:00 19,5 C 18,9 C 16,7 C 83 % 1016,6 hPa 0,0 l/m 0 min 0 min 21 W/m 12,9 km/h (3 Bft) 93,62 %
22.08.2021 20:02 19,5 C 18,3 C 16,7 C 83 % 1016,6 hPa 0,0 l/m 0 min 0 min 21 W/m 6,4 km/h (2 Bft) 85,11 %
22.08.2021 20:04 19,4 C 18,3 C 16,7 C 83 % 1016,6 hPa 0,0 l/m 0 min 0 min 21 W/m 9,7 km/h (2 Bft) 91,30 %
22.08.2021 20:06 19,4 C 18,3 C 16,7 C 84 % 1016,7 hPa 0,0 l/m 0 min 0 min 21 W/m 9,7 km/h (2 Bft) 95,74 %
22.08.2021 20:08 19,4 C 18,3 C 16,7 C 84 % 1016,7 hPa 0,0 l/m 0 min 0 min 19 W/m 12,9 km/h (3 Bft) 97,87 %
22.08.2021 20:10 19,4 C 18,3 C 16,7 C 84 % 1016,7 hPa 0,0 l/m 0 min 0 min 18 W/m 6,4 km/h (2 Bft) 97,87 %
22.08.2021 20:12 19,3 C 18,3 C 16,7 C 84 % 1016,8 hPa 0,0 l/m 0 min 0 min 17 W/m 12,9 km/h (3 Bft) 94,29 %
22.08.2021 20:14 19,3 C 18,3 C 16,7 C 84 % 1016,8 hPa 0,0 l/m 0 min 0 min 15 W/m 9,7 km/h (2 Bft) 93,62 %
22.08.2021 20:16 19,3 C 18,3 C 16,7 C 84 % 1016,8 hPa 0,0 l/m 0 min 0 min 13 W/m 16,1 km/h (3 Bft) 98,28 %
22.08.2021 20:18 19,2 C 18,3 C 16,7 C 84 % 1016,8 hPa 0,0 l/m 0 min 0 min 12 W/m 16,1 km/h (3 Bft) 95,74 %
22.08.2021 20:20 19,2 C 18,3 C 16,7 C 84 % 1016,8 hPa 0,0 l/m 0 min 0 min 11 W/m 12,9 km/h (3 Bft) 97,14 %
22.08.2021 20:22 19,1 C 18,3 C 16,7 C 84 % 1016,8 hPa 0,0 l/m 0 min 0 min 11 W/m 6,4 km/h (2 Bft) 97,87 %
22.08.2021 20:24 19,1 C 18,3 C 16,7 C 84 % 1016,8 hPa 0,0 l/m 0 min 0 min 11 W/m 12,9 km/h (3 Bft) 98,31 %
22.08.2021 20:26 19,1 C 18,3 C 16,7 C 85 % 1016,8 hPa 0,0 l/m 0 min 0 min 11 W/m 3,2 km/h (1 Bft) 95,65 %
22.08.2021 20:28 19,1 C 18,3 C 16,7 C 85 % 1016,8 hPa 0,0 l/m 0 min 0 min 11 W/m 6,4 km/h (2 Bft) 94,44 %
22.08.2021 20:30 19,1 C 18,3 C 16,7 C 85 % 1016,8 hPa 0,0 l/m 0 min 0 min 10 W/m 9,7 km/h (2 Bft) 96,55 %
22.08.2021 20:32 19,1 C 18,3 C 16,7 C 85 % 1016,9 hPa 0,0 l/m 0 min 0 min 9 W/m 12,9 km/h (3 Bft) 97,87 %
22.08.2021 20:34 19,1 C 18,3 C 16,7 C 85 % 1016,9 hPa 0,0 l/m 0 min 0 min 8 W/m 12,9 km/h (3 Bft) 93,62 %
22.08.2021 20:36 19,0 C 18,3 C 16,7 C 85 % 1016,9 hPa 0,0 l/m 0 min 0 min 7 W/m 9,7 km/h (2 Bft) 93,62 %
22.08.2021 20:38 19,0 C 18,3 C 16,7 C 85 % 1016,9 hPa 0,0 l/m 0 min 0 min 5 W/m 9,7 km/h (2 Bft) 95,65 %
22.08.2021 20:40 19,0 C 18,3 C 16,7 C 85 % 1017,0 hPa 0,0 l/m 0 min 0 min 1 W/m 12,9 km/h (3 Bft) 95,74 %
22.08.2021 20:42 19,0 C 18,3 C 16,7 C 85 % 1017,0 hPa 0,0 l/m 0 min 0 min 0 W/m 6,4 km/h (2 Bft) 95,74 %
22.08.2021 20:44 19,0 C 18,3 C 16,7 C 85 % 1017,1 hPa 0,0 l/m 0 min 0 min 0 W/m 6,4 km/h (2 Bft) 93,62 %
22.08.2021 20:46 19,0 C 18,3 C 16,7 C 85 % 1017,1 hPa 0,0 l/m 0 min 0 min 0 W/m 9,7 km/h (2 Bft) 91,43 %
22.08.2021 20:48 19,0 C 18,3 C 16,7 C 86 % 1017,2 hPa 0,0 l/m 0 min 0 min 0 W/m 12,9 km/h (3 Bft) 93,22 %
22.08.2021 20:50 19,0 C 18,3 C 16,7 C 86 % 1017,3 hPa 0,0 l/m 0 min 0 min 0 W/m 3,2 km/h (1 Bft) 94,29 %
22.08.2021 20:52 19,0 C 18,3 C 16,7 C 86 % 1017,3 hPa 0,0 l/m 0 min 0 min 0 W/m 6,4 km/h (2 Bft) 89,66 %
22.08.2021 20:54 19,0 C 18,3 C 16,7 C 86 % 1017,3 hPa 0,0 l/m 0 min 0 min 0 W/m 9,7 km/h (2 Bft) 93,62 %
22.08.2021 20:56 18,9 C 18,3 C 16,7 C 86 % 1017,3 hPa 0,0 l/m 0 min 0 min 0 W/m 6,4 km/h (2 Bft) 97,14 %
22.08.2021 20:58 18,9 C 18,3 C 16,7 C 86 % 1017,3 hPa 0,0 l/m 0 min 0 min 0 W/m 12,9 km/h (3 Bft) 91,49 %
22.08.2021 21:00 18,9 C 17,8 C 16,1 C 86 % 1017,4 hPa 0,0 l/m 0 min 0 min 0 W/m 6,4 km/h (2 Bft) 91,49 %
22.08.2021 21:02 18,9 C 17,8 C 16,1 C 86 % 1017,4 hPa 0,0 l/m 0 min 0 min 0 W/m 3,2 km/h (1 Bft) 93,10 %
22.08.2021 21:04 18,9 C 17,8 C 16,1 C 86 % 1017,5 hPa 0,0 l/m 0 min 0 min 0 W/m 3,2 km/h (1 Bft) 94,44 %
22.08.2021 21:06 18,8 C 17,8 C 16,1 C 86 % 1017,5 hPa 0,0 l/m 0 min 0 min 0 W/m 6,4 km/h (2 Bft) 95,65 %
22.08.2021 21:08 18,8 C 17,8 C 16,1 C 87 % 1017,5 hPa 0,0 l/m 0 min 0 min 0 W/m 6,4 km/h (2 Bft) 96,61 %
22.08.2021 21:10 18,8 C 17,8 C 16,1 C 87 % 1017,6 hPa 0,0 l/m 0 min 0 min 0 W/m 12,9 km/h (3 Bft) 91,43 %
22.08.2021 21:12 18,8 C 17,8 C 16,1 C 87 % 1017,5 hPa 0,0 l/m 0 min 0 min 0 W/m 6,4 km/h (2 Bft) 95,74 %
22.08.2021 21:14 18,8 C 17,8 C 16,1 C 87 % 1017,6 hPa 0,0 l/m 0 min 0 min 0 W/m 12,9 km/h (3 Bft) 93,62 %
22.08.2021 21:16 18,8 C 17,8 C 16,1 C 87 % 1017,6 hPa 0,0 l/m 0 min 0 min 0 W/m 16,1 km/h (3 Bft) 96,55 %
22.08.2021 21:18 18,7 C 17,8 C 16,1 C 87 % 1017,6 hPa 0,0 l/m 0 min 0 min 0 W/m 6,4 km/h (2 Bft) 97,14 %
22.08.2021 21:20 18,7 C 17,8 C 16,1 C 87 % 1017,7 hPa 0,0 l/m 0 min 0 min 0 W/m 6,4 km/h (2 Bft) 100,00 %
22.08.2021 21:22 18,7 C 17,8 C 16,1 C 87 % 1017,7 hPa 0,0 l/m 0 min 0 min 0 W/m 3,2 km/h (1 Bft) 97,87 %
22.08.2021 21:24 18,7 C 17,8 C 16,1 C 87 % 1017,8 hPa 0,0 l/m 0 min 0 min 0 W/m 3,2 km/h (1 Bft) 100,00 %
22.08.2021 21:26 18,7 C 17,8 C 16,1 C 87 % 1017,8 hPa 0,0 l/m 0 min 0 min 0 W/m 6,4 km/h (2 Bft) 97,14 %
22.08.2021 21:28 18,6 C 17,8 C 16,1 C 87 % 1017,8 hPa 0,0 l/m 0 min 0 min 0 W/m 3,2 km/h (1 Bft) 100,00 %
22.08.2021 21:30 18,6 C 17,8 C 16,1 C 88 % 1017,8 hPa 0,0 l/m 0 min 0 min 0 W/m 12,9 km/h (3 Bft) 100,00 %
22.08.2021 21:32 18,6 C 17,8 C 16,1 C 88 % 1017,8 hPa 0,0 l/m 0 min 0 min 0 W/m 6,4 km/h (2 Bft) 97,87 %
22.08.2021 21:34 18,6 C 17,8 C 16,1 C 87 % 1017,9 hPa 0,0 l/m 0 min 0 min 0 W/m 3,2 km/h (1 Bft) 100,00 %
22.08.2021 21:36 18,6 C 17,8 C 16,1 C 88 % 1017,9 hPa 0,0 l/m 0 min 0 min 0 W/m 6,4 km/h (2 Bft) 100,00 %
22.08.2021 21:38 18,6 C 17,8 C 16,1 C 88 % 1017,9 hPa 0,0 l/m 0 min 0 min 0 W/m 6,4 km/h (2 Bft) 98,28 %
22.08.2021 21:40 18,5 C 17,8 C 16,1 C 88 % 1017,9 hPa 0,0 l/m 0 min 0 min 0 W/m 6,4 km/h (2 Bft) 100,00 %
22.08.2021 21:42 18,5 C 17,8 C 16,1 C 88 % 1017,9 hPa 0,0 l/m 0 min 0 min 0 W/m 3,2 km/h (1 Bft) 100,00 %
22.08.2021 21:44 18,5 C 17,8 C 16,1 C 88 % 1017,9 hPa 0,0 l/m 0 min 0 min 0 W/m 6,4 km/h (2 Bft) 100,00 %
22.08.2021 21:46 18,5 C 17,8 C 16,1 C 88 % 1017,9 hPa 0,0 l/m 0 min 0 min 0 W/m 6,4 km/h (2 Bft) 100,00 %
22.08.2021 21:48 18,5 C 17,8 C 16,1 C 88 % 1018,0 hPa 0,0 l/m 0 min 0 min 0 W/m 6,4 km/h (2 Bft) 100,00 %
22.08.2021 21:50 18,5 C 17,8 C 16,1 C 88 % 1018,0 hPa 0,0 l/m 0 min 0 min 0 W/m 9,7 km/h (2 Bft) 100,00 %
22.08.2021 21:52 18,5 C 17,8 C 16,1 C 88 % 1018,0 hPa 0,0 l/m 0 min 0 min 0 W/m 6,4 km/h (2 Bft) 100,00 %
22.08.2021 21:54 18,5 C 17,8 C 16,1 C 88 % 1018,0 hPa 0,0 l/m 0 min 0 min 0 W/m 3,2 km/h (1 Bft) 100,00 %
22.08.2021 21:56 18,4 C 17,8 C 16,1 C 88 % 1018,0 hPa 0,0 l/m 0 min 0 min 0 W/m 3,2 km/h (1 Bft) 100,00 %
22.08.2021 21:58 18,4 C 17,8 C 16,1 C 88 % 1018,0 hPa 0,0 l/m 0 min 0 min 0 W/m 6,4 km/h (2 Bft) 100,00 %
22.08.2021 22:00 18,4 C 17,8 C 16,1 C 88 % 1018,1 hPa 0,0 l/m 0 min 0 min 0 W/m 6,4 km/h (2 Bft) 100,00 %
22.08.2021 22:02 18,4 C 17,8 C 16,1 C 88 % 1018,1 hPa 0,0 l/m 0 min 0 min 0 W/m 6,4 km/h (2 Bft) 97,87 %
22.08.2021 22:04 18,4 C 17,2 C 16,1 C 88 % 1018,0 hPa 0,0 l/m 0 min 0 min 0 W/m 3,2 km/h (1 Bft) 100,00 %
22.08.2021 22:06 18,4 C 17,2 C 16,1 C 88 % 1018,1 hPa 0,0 l/m 0 min 0 min 0 W/m 3,2 km/h (1 Bft) 100,00 %
22.08.2021 22:08 18,3 C 17,2 C 16,1 C 88 % 1018,0 hPa 0,0 l/m 0 min 0 min 0 W/m 6,4 km/h (2 Bft) 100,00 %
22.08.2021 22:10 18,3 C 17,2 C 16,1 C 88 % 1018,0 hPa 0,0 l/m 0 min 0 min 0 W/m 3,2 km/h (1 Bft) 100,00 %
22.08.2021 22:12 18,3 C 17,2 C 16,1 C 88 % 1018,0 hPa 0,0 l/m 0 min 0 min 0 W/m 3,2 km/h (1 Bft) 97,87 %
22.08.2021 22:14 18,3 C 17,2 C 15,6 C 88 % 1018,0 hPa 0,0 l/m 0 min 0 min 0 W/m 6,4 km/h (2 Bft) 97,87 %
22.08.2021 22:16 18,2 C 17,2 C 15,6 C 88 % 1018,0 hPa 0,0 l/m 0 min 0 min 0 W/m 6,4 km/h (2 Bft) 100,00 %
22.08.2021 22:18 18,1 C 17,2 C 15,6 C 88 % 1018,0 hPa 0,0 l/m 0 min 0 min 0 W/m 3,2 km/h (1 Bft) 100,00 %
22.08.2021 22:20 18,1 C 17,2 C 15,6 C 88 % 1018,0 hPa 0,0 l/m 0 min 0 min 0 W/m 6,4 km/h (2 Bft) 100,00 %
22.08.2021 22:22 18,1 C 17,2 C 15,6 C 88 % 1018,0 hPa 0,0 l/m 0 min 0 min 0 W/m 6,4 km/h (2 Bft) 100,00 %
22.08.2021 22:24 18,1 C 16,7 C 15,6 C 88 % 1018,0 hPa 0,0 l/m 0 min 0 min 0 W/m 3,2 km/h (1 Bft) 100,00 %
22.08.2021 22:26 18,0 C 16,7 C 15,6 C 89 % 1018,0 hPa 0,0 l/m 0 min 0 min 0 W/m 6,4 km/h (2 Bft) 97,87 %
22.08.2021 22:28 18,0 C 16,7 C 15,6 C 89 % 1018,0 hPa 0,0 l/m 0 min 0 min 0 W/m 3,2 km/h (1 Bft) 100,00 %
22.08.2021 22:30 18,0 C 16,7 C 15,6 C 89 % 1018,0 hPa 0,0 l/m 0 min 0 min 0 W/m 3,2 km/h (1 Bft) 100,00 %
22.08.2021 22:32 18,0 C 16,7 C 15,6 C 89 % 1018,0 hPa 0,0 l/m 0 min 0 min 0 W/m 3,2 km/h (1 Bft) 100,00 %
22.08.2021 22:34 17,9 C 16,7 C 15,6 C 89 % 1018,1 hPa 0,0 l/m 0 min 0 min 0 W/m 3,2 km/h (1 Bft) 100,00 %
22.08.2021 22:36 17,9 C 16,7 C 15,6 C 89 % 1018,1 hPa 0,0 l/m 0 min 0 min 0 W/m 3,2 km/h (1 Bft) 97,87 %
22.08.2021 22:38 17,9 C 16,7 C 15,6 C 89 % 1018,1 hPa 0,0 l/m 0 min 0 min 0 W/m 6,4 km/h (2 Bft) 97,87 %
22.08.2021 22:40 17,8 C 16,7 C 15,6 C 89 % 1018,2 hPa 0,0 l/m 0 min 0 min 0 W/m 3,2 km/h (1 Bft) 97,87 %
22.08.2021 22:42 17,8 C 16,7 C 15,6 C 89 % 1018,1 hPa 0,0 l/m 0 min 0 min 0 W/m 9,7 km/h (2 Bft) 97,83 %
22.08.2021 22:44 17,8 C 16,7 C 15,6 C 89 % 1018,2 hPa 0,0 l/m 0 min 0 min 0 W/m 3,2 km/h (1 Bft) 97,87 %
22.08.2021 22:46 17,8 C 16,7 C 15,6 C 89 % 1018,1 hPa 0,0 l/m 0 min 0 min 0 W/m 6,4 km/h (2 Bft) 97,87 %
22.08.2021 22:48 17,8 C 16,7 C 15,6 C 89 % 1018,1 hPa 0,0 l/m 0 min 0 min 0 W/m 3,2 km/h (1 Bft) 97,87 %
22.08.2021 22:50 17,7 C 16,7 C 15,6 C 90 % 1018,1 hPa 0,0 l/m 0 min 0 min 0 W/m 3,2 km/h (1 Bft) 95,74 %
22.08.2021 22:52 17,6 C 16,7 C 15,6 C 90 % 1018,1 hPa 0,0 l/m 0 min 0 min 0 W/m 3,2 km/h (1 Bft) 97,87 %
22.08.2021 22:54 17,6 C 16,7 C 15,6 C 90 % 1018,1 hPa 0,0 l/m 0 min 0 min 0 W/m 6,4 km/h (2 Bft) 93,62 %
22.08.2021 22:56 17,6 C 16,7 C 15,6 C 90 % 1018,1 hPa 0,0 l/m 0 min 0 min 0 W/m 6,4 km/h (2 Bft) 97,83 %
22.08.2021 22:58 17,6 C 16,7 C 15,0 C 90 % 1018,1 hPa 0,0 l/m 0 min 0 min 0 W/m 3,2 km/h (1 Bft) 97,87 %
22.08.2021 23:00 17,6 C 16,7 C 15,0 C 90 % 1018,1 hPa 0,0 l/m 0 min 0 min 0 W/m 3,2 km/h (1 Bft) 97,87 %
22.08.2021 23:02 17,6 C 16,7 C 15,6 C 90 % 1018,0 hPa 0,0 l/m 0 min 0 min 0 W/m 6,4 km/h (2 Bft) 95,74 %
22.08.2021 23:04 17,5 C 16,7 C 15,6 C 90 % 1018,1 hPa 0,0 l/m 0 min 0 min 0 W/m 6,4 km/h (2 Bft) 95,74 %
22.08.2021 23:06 17,6 C 16,7 C 15,0 C 91 % 1018,1 hPa 0,0 l/m 0 min 0 min 0 W/m 6,4 km/h (2 Bft) 93,62 %
22.08.2021 23:08 17,5 C 16,7 C 15,6 C 91 % 1018,0 hPa 0,0 l/m 0 min 0 min 0 W/m 6,4 km/h (2 Bft) 97,83 %
22.08.2021 23:10 17,5 C 16,7 C 15,0 C 91 % 1018,1 hPa 0,0 l/m 0 min 0 min 0 W/m 6,4 km/h (2 Bft) 97,87 %
22.08.2021 23:12 17,5 C 16,7 C 15,6 C 91 % 1018,1 hPa 0,0 l/m 0 min 0 min 0 W/m 6,4 km/h (2 Bft) 97,87 %
22.08.2021 23:14 17,5 C 16,7 C 15,0 C 91 % 1018,2 hPa 0,0 l/m 0 min 0 min 0 W/m 3,2 km/h (1 Bft) 97,87 %
22.08.2021 23:16 17,5 C 16,7 C 15,0 C 91 % 1018,2 hPa 0,0 l/m 0 min 0 min 0 W/m 3,2 km/h (1 Bft) 97,87 %
22.08.2021 23:18 17,5 C 16,7 C 15,0 C 91 % 1018,3 hPa 0,0 l/m 0 min 0 min 0 W/m 9,7 km/h (2 Bft) 95,65 %
22.08.2021 23:20 17,5 C 16,7 C 15,0 C 91 % 1018,2 hPa 0,0 l/m 0 min 0 min 0 W/m 3,2 km/h (1 Bft) 97,87 %
22.08.2021 23:22 17,5 C 16,7 C 15,0 C 91 % 1018,3 hPa 0,0 l/m 0 min 0 min 0 W/m 3,2 km/h (1 Bft) 97,96 %
22.08.2021 23:24 17,4 C 16,7 C 15,0 C 92 % 1018,3 hPa 0,0 l/m 0 min 0 min 0 W/m 3,2 km/h (1 Bft) 95,74 %
22.08.2021 23:26 17,4 C 16,1 C 15,0 C 92 % 1018,3 hPa 0,0 l/m 0 min 0 min 0 W/m 3,2 km/h (1 Bft) 93,62 %
22.08.2021 23:28 17,4 C 16,1 C 15,0 C 92 % 1018,3 hPa 0,0 l/m 0 min 0 min 0 W/m 3,2 km/h (1 Bft) 92,00 %
22.08.2021 23:30 17,4 C 16,1 C 15,0 C 92 % 1018,3 hPa 0,0 l/m 0 min 0 min 0 W/m 6,4 km/h (2 Bft) 95,74 %
22.08.2021 23:32 17,4 C 16,1 C 15,0 C 92 % 1018,4 hPa 0,0 l/m 0 min 0 min 0 W/m 3,2 km/h (1 Bft) 95,74 %
22.08.2021 23:34 17,4 C 16,1 C 15,0 C 92 % 1018,4 hPa 0,0 l/m 0 min 0 min 0 W/m 6,4 km/h (2 Bft) 95,74 %
22.08.2021 23:36 17,3 C 16,1 C 15,0 C 92 % 1018,4 hPa 0,0 l/m 0 min 0 min 0 W/m 3,2 km/h (1 Bft) 95,65 %
22.08.2021 23:38 17,3 C 16,1 C 15,0 C 92 % 1018,4 hPa 0,0 l/m 0 min 0 min 0 W/m 3,2 km/h (1 Bft) 97,87 %
22.08.2021 23:40 17,3 C 16,1 C 15,0 C 92 % 1018,4 hPa 0,0 l/m 0 min 0 min 0 W/m 3,2 km/h (1 Bft) 95,74 %
22.08.2021 23:42 17,3 C 16,1 C 15,0 C 92 % 1018,4 hPa 0,0 l/m 0 min 0 min 0 W/m 3,2 km/h (1 Bft) 95,74 %
22.08.2021 23:44 17,3 C 16,7 C 15,0 C 92 % 1018,4 hPa 0,0 l/m 0 min 0 min 0 W/m 0,0 km/h (0 Bft) 95,74 %
22.08.2021 23:46 17,3 C 16,7 C 15,0 C 92 % 1018,4 hPa 0,0 l/m 0 min 0 min 0 W/m 3,2 km/h (1 Bft) 93,62 %
22.08.2021 23:48 17,3 C 16,7 C 15,0 C 92 % 1018,3 hPa 0,0 l/m 0 min 0 min 0 W/m 3,2 km/h (1 Bft) 95,65 %
22.08.2021 23:50 17,3 C 16,7 C 15,0 C 92 % 1018,4 hPa 0,0 l/m 0 min 0 min 0 W/m 0,0 km/h (0 Bft) 95,74 %
22.08.2021 23:52 17,3 C 16,7 C 15,0 C 92 % 1018,4 hPa 0,0 l/m 0 min 0 min 0 W/m 3,2 km/h (1 Bft) 97,87 %
22.08.2021 23:54 17,3 C 16,7 C 15,0 C 92 % 1018,4 hPa 0,0 l/m 0 min 0 min 0 W/m 6,4 km/h (2 Bft) 95,74 %
22.08.2021 23:56 17,3 C 16,7 C 15,6 C 93 % 1018,5 hPa 0,0 l/m 0 min 0 min 0 W/m 6,4 km/h (2 Bft) 97,87 %
22.08.2021 23:58 17,3 C 16,7 C 15,6 C 93 % 1018,5 hPa 0,0 l/m 0 min 0 min 0 W/m 9,7 km/h (2 Bft) 97,83 %
_ Min-Zeit 03:50 03:04 02:42 13:46 02:28 - - - - 00:00 19:16
Minimum _ 16,5 C 15,6 C 14,5 C 68 % 1014,4 hPa - - - - 0,0 km/h (0 Bft) 78,26 %
_ Max-Zeit 14:16 16:46 12:14 04:38 23:56 01:14 12:08 00:08 14:04 12:42 00:00
Maximum _ 23,3 C 28,3 C 22,8 C 97 % 1018,5 hPa 0,4 l/m 4 min 4 min 1046 W/m 35,4 km/h
S (5 Bft)
100,00 %
Durchschnitt _ 19,3 C 19,4 C 17,1 C 86 % 1015,7 hPa #2,8 l/m #6:12 h #1:54 h 309 W/m 10,7 km/h (2 Bft) 97,27 %
© 2021 W. Hausmann